GFSCGP_850_rhum_000.txt.gz
RH
17 24 23 17 16 16 16 19 24 19 15 14 26 34 33 45 48 48 53 54 52 50 48 44 43 42 43 62 62 63 62 59 60 56 56 60 55 49 40 36 36 40 41 42
24 24 17 17 21 23 20 24 26 20 17 17 29 34 37 41 44 45 50 51 52 52 49 49 52 52 54 60 62 58 56 59 58 53 59 54 45 37 36 39 43 44 45 44
28 19 15 22 28 28 34 30 25 22 20 22 28 34 38 34 36 39 45 45 43 45 50 50 49 52 50 53 57 52 49 49 49 47 40 37 36 38 42 41 38 36 36 43
21 22 24 28 27 27 36 27 26 24 26 25 22 47 35 41 43 44 50 46 45 42 41 43 44 44 44 43 40 39 39 38 38 37 34 36 38 40 41 39 39 42 44 51
29 29 31 30 25 24 31 24 26 25 32 31 29 46 40 40 45 47 49 48 42 39 37 40 40 39 41 42 40 38 37 36 39 41 38 40 41 42 46 45 46 52 54 53
25 23 24 24 24 22 22 28 39 37 45 60 40 50 51 49 44 44 46 46 40 36 37 37 39 44 45 44 44 46 45 47 50 50 47 49 50 50 51 53 55 52 52 55
31 30 26 24 31 29 32 45 68 61 72 66 44 59 54 40 38 45 47 42 40 40 40 41 43 45 46 46 48 49 51 52 54 55 54 53 52 54 55 55 64 68 67 55
42 52 29 25 26 28 31 40 65 63 76 52 41 57 48 39 39 39 38 39 39 41 42 46 49 52 54 54 52 54 55 55 57 59 56 54 55 55 60 73 88 81 74 57
46 38 27 23 23 29 33 38 32 56 67 63 56 42 34 34 35 33 32 32 42 45 48 52 57 54 53 52 54 57 59 60 61 58 56 58 54 56 64 57 56 64 60 62
31 39 26 22 29 29 24 26 49 66 56 63 54 51 56 44 39 37 45 44 48 50 52 53 53 54 54 55 55 54 52 53 56 53 51 50 49 58 56 60 60 59 62 71
41 41 36 35 36 36 39 40 45 51 67 72 78 57 42 48 44 51 50 48 48 51 55 57 57 58 57 55 53 53 52 48 41 39 39 37 44 55 64 68 64 72 75 90
38 52 64 35 27 26 27 36 48 70 57 85 85 58 35 42 43 47 50 49 54 59 63 61 58 56 56 52 46 46 45 40 35 32 30 47 70 72 72 69 72 81 85 63
39 54 70 57 44 38 33 31 54 61 67 57 76 60 41 46 45 49 53 62 65 63 61 58 50 46 46 46 46 43 40 38 35 31 31 30 30 32 44 84 74 71 71 65
48 60 52 70 49 41 30 30 47 53 77 66 70 44 56 61 64 62 65 65 64 64 61 49 36 48 45 41 40 40 40 38 35 32 30 28 24 42 56 84 70 82 92 76
56 61 54 43 47 40 35 37 38 40 48 59 51 56 65 64 66 66 66 64 62 59 46 40 51 44 37 38 38 38 36 33 31 31 29 27 26 46 55 68 67 78 57 49
74 75 70 50 64 67 46 46 47 43 36 39 65 73 61 61 67 70 67 66 64 49 42 43 48 36 37 36 34 33 31 30 32 32 33 35 39 47 60 70 93 87 57 39
87 91 78 72 91 79 63 43 44 38 55 39 55 70 65 74 74 70 67 63 52 43 41 44 36 33 32 32 31 30 30 33 36 40 42 44 47 53 65 78 93 76 64 72
98 93 93 75 72 56 52 44 43 73 67 70 72 71 65 69 67 67 62 54 49 44 38 36 34 33 32 30 31 32 35 38 40 43 45 50 54 57 70 92 93 89 80 82
71 90 97 73 90 50 46 43 46 45 81 72 77 74 67 71 69 65 62 53 49 42 37 36 34 33 31 33 34 36 38 40 44 46 49 57 61 57 77 89 80 77 80 58
89 85 80 98 61 52 48 46 41 41 73 73 73 75 70 66 91 76 59 64 53 38 37 35 34 32 34 36 38 40 48 50 49 51 57 64 67 70 72 72 72 70 54 50
99 95 92 98 87 77 53 46 42 70 61 74 70 73 72 80 56 52 59 54 42 38 36 33 35 37 39 40 42 49 50 51 55 62 67 67 71 76 70 61 58 60 63 65
82 93 98 99 96 82 46 49 60 57 66 72 79 74 68 68 65 61 60 44 39 36 36 38 39 39 38 43 47 48 53 62 68 73 73 59 74 78 71 68 70 70 61 62
61 70 83 77 78 47 41 40 38 41 50 78 77 73 72 64 68 60 45 40 36 36 38 38 37 37 40 46 35 56 65 71 77 77 72 60 62 70 64 70 69 67 66 70
59 59 85 74 57 58 46 50 50 62 65 71 76 67 63 68 65 45 39 36 37 37 37 30 24 24 27 29 41 69 78 78 82 83 82 69 56 46 49 70 74 71 78 79
60 60 64 74 58 63 59 60 61 72 74 76 72 72 76 69 45 39 36 36 37 35 27 20 21 26 32 36 42 56 62 79 80 94 92 76 56 57 56 80 85 91 92 86
60 62 79 67 48 52 54 56 71 72 73 73 79 75 66 48 39 36 36 33 29 25 18 21 28 32 37 42 45 55 72 95 88 92 97 94 75 67 67 91 93 96 93 79

GFSCGP_850_rhum_006.txt.gz
RH
20 25 23 18 17 14 15 16 18 20 28 54 65 68 66 69 66 65 64 61 58 53 56 52 54 53 52 58 69 61 59 65 72 86 77 69 70 72 67 49 47 46 39 37
25 24 19 25 26 24 24 28 33 34 38 53 56 57 52 54 63 67 67 68 64 62 62 64 69 75 77 83 76 62 59 63 65 72 67 65 50 40 43 43 44 40 42 42
26 21 22 26 30 31 34 28 28 40 47 47 48 55 54 49 61 63 62 61 57 51 57 61 64 62 56 51 48 44 42 42 44 43 40 43 43 44 45 46 44 46 47 47
31 29 27 29 29 31 31 29 34 48 47 55 41 73 48 52 60 61 60 57 52 48 49 48 46 41 38 37 39 40 41 44 44 44 47 50 52 52 52 51 50 50 52 54
32 29 31 30 27 28 32 30 32 31 38 40 44 65 55 57 64 64 62 57 52 46 45 42 41 42 40 44 45 47 48 48 49 52 54 56 57 56 56 53 53 55 58 52
31 27 27 27 29 26 30 38 46 51 51 59 44 54 62 68 61 61 58 56 51 49 48 43 45 44 46 47 48 49 51 53 54 55 56 58 58 60 56 56 56 61 55 55
33 32 28 27 30 30 40 45 65 59 70 71 50 54 52 50 53 53 55 53 53 51 50 51 52 48 50 50 51 52 54 55 56 57 58 60 58 53 56 63 67 70 72 64
44 46 29 25 28 32 34 44 66 58 79 62 48 60 53 45 40 42 44 48 54 56 60 61 54 50 52 53 54 56 56 54 54 57 58 56 52 48 51 61 63 58 54 62
43 37 27 25 27 30 34 45 41 70 68 68 66 49 45 56 55 49 49 53 58 63 61 58 57 55 54 54 52 48 44 44 48 47 48 39 32 31 32 29 26 23 20 26
39 35 31 26 30 32 31 38 44 67 54 64 64 59 66 58 61 58 60 57 61 62 59 57 55 54 53 50 46 45 39 39 40 38 38 35 29 25 23 18 15 9 5 56
36 39 37 32 37 38 39 41 56 60 70 68 81 68 52 54 57 58 59 56 60 61 58 55 55 54 50 48 47 46 38 42 40 37 32 26 25 21 17 14 10 10 31 79
42 54 62 35 33 37 33 38 42 58 46 86 84 58 49 55 48 47 61 63 63 61 56 56 54 52 45 41 37 39 41 40 36 32 28 32 33 29 22 19 17 19 41 78
42 57 71 51 38 35 34 47 55 59 72 72 77 57 57 62 64 61 68 66 64 59 59 56 51 44 40 38 40 42 44 36 34 30 34 35 37 35 34 30 25 27 58 72
42 58 49 58 44 45 35 45 48 46 70 64 71 40 58 67 74 76 73 67 64 61 58 52 43 42 39 42 60 44 36 35 33 34 38 40 42 42 38 32 37 43 79 97
48 53 52 60 61 46 36 35 54 48 47 53 47 53 43 67 75 75 69 67 65 64 54 45 44 42 48 54 39 35 35 34 34 36 40 43 47 46 36 48 47 49 76 88
63 70 59 63 71 67 47 42 45 50 47 58 54 56 64 65 64 72 69 67 66 62 52 44 45 43 36 36 33 34 34 34 36 39 42 48 50 43 45 53 58 67 95 94
71 87 56 44 76 60 50 46 50 47 48 52 66 51 77 80 74 72 68 66 62 59 48 40 38 35 36 33 33 33 33 36 39 42 46 53 48 52 52 63 69 83 96 87
94 87 79 73 69 45 35 41 47 47 54 64 62 68 72 68 70 62 61 60 60 57 46 37 36 38 35 32 31 33 36 40 42 46 52 47 55 68 59 58 71 83 85 81
68 86 94 68 74 45 30 63 65 58 50 73 68 74 72 69 69 67 62 58 58 55 43 41 39 36 31 29 32 37 41 42 47 49 41 56 70 76 64 55 73 71 72 72
80 81 71 90 53 42 36 43 47 42 70 67 64 73 73 73 90 68 52 54 59 50 45 41 34 34 32 34 39 39 36 43 35 37 54 65 76 78 72 61 75 64 67 66
99 98 76 100 74 63 45 48 43 63 57 67 57 56 69 79 61 54 53 57 60 56 58 36 35 33 37 39 29 28 27 25 31 34 39 60 83 84 74 62 68 66 62 62
91 94 98 96 89 54 41 50 59 54 36 37 48 50 55 52 62 59 55 62 63 63 38 38 36 38 31 21 20 21 26 29 31 35 41 54 71 86 87 64 60 53 67 68
71 65 76 67 68 44 42 50 40 42 35 36 41 39 49 59 65 63 60 61 54 41 38 38 37 26 16 17 23 27 28 32 34 40 51 61 79 90 92 62 54 56 71 70
71 60 79 66 48 56 42 36 41 43 42 43 46 46 50 63 68 70 68 48 41 39 65 35 21 14 16 23 26 30 31 34 38 51 65 73 86 95 96 68 56 66 76 88
71 68 70 77 63 52 43 42 40 45 49 50 51 58 63 71 72 70 57 62 51 81 31 20 16 19 24 28 31 33 36 38 46 63 77 85 94 98 97 91 73 82 88 84
66 70 80 77 36 44 39 38 42 46 48 50 65 72 78 76 70 57 72 58 78 26 20 18 21 26 30 32 36 39 39 48 65 71 98 93 91 100 100 95 96 95 91 84

GFSCGP_850_rhum_009.txt.gz
RH
20 20 20 18 16 14 16 17 18 25 40 48 59 56 58 64 63 65 66 61 59 58 57 56 57 58 56 62 66 75 80 76 72 68 72 72 64 69 58 42 43 43 43 42
23 25 20 25 26 22 24 27 36 42 42 46 49 58 56 57 65 67 66 66 62 61 64 65 67 75 78 68 58 60 59 56 58 66 69 68 58 40 42 44 45 45 45 48
27 23 24 27 30 32 31 30 37 39 45 43 44 50 58 57 64 69 72 72 73 72 75 74 65 53 50 48 44 41 42 54 50 45 45 46 47 47 49 50 50 50 52 53
31 29 26 28 31 30 34 31 41 48 40 40 38 35 55 59 61 61 66 68 67 64 63 56 49 44 40 40 42 44 46 48 48 49 50 53 56 55 55 54 53 54 57 57
33 30 29 31 30 31 36 39 36 34 34 36 42 39 48 55 63 58 59 64 60 55 50 44 39 38 41 44 47 49 49 50 52 53 55 56 58 59 60 56 56 57 62 61
32 28 29 29 34 33 39 38 41 43 40 44 40 37 43 57 53 54 56 61 56 49 43 42 42 43 46 47 49 50 52 54 56 56 57 58 56 55 56 56 58 57 54 47
32 32 28 28 32 32 35 39 49 49 54 47 48 46 36 39 45 46 51 56 54 48 46 50 48 49 48 49 50 51 54 55 57 56 53 50 51 52 46 39 36 33 29 24
34 38 27 28 30 33 38 38 54 58 61 46 47 52 36 40 41 44 48 53 52 52 54 54 54 51 51 53 54 55 55 48 45 42 34 34 36 33 29 25 22 17 13 10
42 37 27 30 29 30 35 38 41 59 61 55 47 44 37 46 44 51 55 58 62 58 59 59 57 57 57 56 54 46 47 40 37 36 36 35 29 24 21 16 11 8 7 6
40 36 32 30 32 35 33 37 41 48 54 51 44 52 42 53 47 48 55 57 63 59 62 62 60 57 55 50 48 49 45 38 37 37 32 28 23 22 18 19 15 11 10 11
35 41 39 35 37 36 38 41 52 48 55 42 48 36 44 45 43 48 49 60 59 62 64 61 56 54 50 48 47 48 42 46 38 33 32 30 29 27 30 28 17 15 18 22
43 52 52 36 35 38 34 38 41 46 45 65 63 39 43 47 44 51 55 58 61 62 63 56 55 52 47 44 44 46 53 41 35 34 34 34 37 39 41 34 24 28 31 37
44 52 58 41 32 34 36 44 46 53 64 66 75 36 46 58 54 52 56 62 63 65 58 56 54 50 43 37 48 53 46 38 35 35 34 37 41 44 47 39 33 40 41 45
40 52 47 47 38 42 43 50 44 41 54 53 58 37 36 49 56 65 67 65 68 63 58 57 54 47 39 41 53 51 37 36 34 34 36 40 44 49 50 38 37 42 47 56
46 49 53 59 58 49 37 46 47 39 42 49 42 44 34 40 51 64 73 72 66 60 59 57 51 42 39 59 48 34 35 34 34 35 38 42 47 52 48 40 40 50 56 80
60 63 59 65 64 59 50 41 44 50 49 44 48 46 38 56 64 73 74 72 69 63 60 56 46 42 47 39 34 34 33 33 34 36 40 43 50 53 42 49 48 53 67 86
63 78 54 49 65 51 51 48 44 47 45 44 54 38 61 66 66 66 73 72 66 61 61 53 45 42 35 36 35 32 32 33 34 39 42 45 52 46 52 60 55 54 70 86
78 66 65 64 67 48 33 44 41 41 43 42 49 51 57 59 62 61 62 59 61 61 60 52 44 36 39 38 34 30 31 34 39 42 41 47 40 51 65 67 63 58 70 69
61 73 78 70 57 42 27 40 56 56 38 48 47 53 69 71 67 65 58 57 56 59 58 51 39 39 39 36 31 30 33 39 38 30 26 27 44 54 74 74 71 60 68 67
68 74 65 74 52 47 35 32 52 43 54 46 56 65 76 71 76 50 46 56 60 62 59 46 41 40 36 33 32 37 38 23 16 21 26 32 40 51 75 80 78 62 67 66
98 93 72 78 69 57 40 46 45 50 45 49 54 52 74 68 52 40 43 53 61 62 53 45 48 36 33 34 38 26 14 17 23 27 30 35 39 48 60 74 84 65 62 55
73 83 84 84 73 58 39 51 58 49 39 32 43 42 48 37 44 53 53 54 61 61 55 64 43 44 38 34 19 14 19 23 27 29 31 33 39 50 68 83 88 60 51 58
68 64 68 62 63 40 38 48 40 46 41 38 43 39 45 51 57 59 60 61 63 60 54 39 67 56 29 17 17 20 24 28 29 30 32 40 53 67 81 91 92 58 57 71
70 61 68 65 47 54 41 38 35 36 40 40 43 47 51 54 61 67 65 65 59 47 46 71 71 27 17 18 22 26 30 32 32 34 42 54 65 76 87 93 95 81 67 78
67 67 68 70 59 48 38 36 36 39 42 46 52 53 56 63 68 74 72 59 52 60 90 71 25 19 20 23 27 31 32 32 35 45 58 65 89 84 88 92 99 89 82 90
70 67 76 74 35 42 37 39 48 51 53 57 60 62 68 76 79 79 60 54 84 91 72 24 21 22 26 28 32 36 34 37 48 62 77 100 100 100 100 100 98 95 94 93

GFSCGP_850_rhum_015.txt.gz
RH
19 18 17 13 12 10 9 9 8 8 10 8 9 14 14 21 21 23 24 29 34 38 49 59 64 70 65 71 78 86 89 99 98 98 92 84 74 76 77 69 60 56 59 63
18 23 13 10 10 9 9 10 12 12 12 16 11 13 15 19 20 23 24 26 29 37 51 62 71 76 78 84 86 94 98 99 92 77 70 64 66 72 62 64 56 61 61 65
23 15 13 13 10 10 11 10 15 14 15 15 13 17 22 20 21 29 28 28 31 40 49 64 72 75 81 87 95 94 90 83 70 66 72 75 74 62 61 62 59 70 73 72
29 16 14 12 12 12 17 14 13 14 19 20 14 18 20 24 26 27 31 32 36 41 50 63 70 76 75 78 74 71 68 67 73 63 55 56 54 55 64 61 65 69 72 75
21 17 15 14 17 17 26 17 16 15 16 19 16 17 43 24 24 27 30 33 38 46 55 56 56 58 61 66 64 65 61 57 62 65 65 62 62 62 61 64 67 61 52 44
30 17 15 16 19 17 19 20 20 17 16 26 15 18 21 24 21 24 30 37 43 48 47 44 46 50 56 61 64 63 58 63 66 70 73 70 65 60 54 49 38 34 32 32
17 16 18 18 20 19 17 20 25 23 26 28 18 19 16 14 18 19 30 37 43 45 40 38 42 44 53 62 66 64 62 65 69 67 62 58 50 42 37 36 35 38 36 37
19 29 19 18 17 18 20 17 25 28 27 18 21 21 14 17 16 19 28 35 41 41 37 37 41 44 54 63 63 59 61 63 62 52 47 46 50 54 40 41 43 41 41 41
17 22 18 19 18 16 18 25 18 27 30 32 18 12 14 21 21 22 28 34 38 38 37 39 42 47 56 61 61 62 58 52 47 49 55 56 38 25 45 49 50 44 45 44
16 22 18 22 21 21 22 18 25 22 34 34 16 16 12 23 23 24 27 32 35 36 37 39 45 52 57 58 63 58 50 45 52 58 53 41 40 50 51 51 51 49 51 55
14 18 26 24 24 18 24 22 20 22 29 32 23 16 15 15 20 23 25 30 33 35 37 42 49 54 56 61 58 52 45 52 54 52 46 44 50 52 51 52 54 55 58 58
16 21 34 25 22 21 21 20 21 30 25 28 40 22 15 18 19 22 24 27 31 34 36 43 50 54 56 58 53 49 52 52 50 58 50 50 51 50 50 53 55 59 60 60
25 24 36 30 26 22 21 19 19 18 32 26 49 22 16 18 20 20 23 26 31 33 37 44 50 53 56 54 50 49 52 49 51 51 40 43 45 49 51 54 58 62 61 61
30 23 27 34 25 21 29 20 19 21 31 26 24 15 13 15 17 16 21 24 28 33 38 45 49 51 56 52 49 48 52 56 57 35 35 36 43 50 52 55 60 62 62 67
30 34 25 24 25 22 20 19 20 20 19 26 19 11 9 9 11 13 17 24 25 34 42 46 48 49 51 50 47 48 56 66 43 37 36 39 46 53 51 52 60 61 69 66
34 38 38 44 28 27 26 20 16 17 18 15 14 14 10 13 13 17 19 26 28 34 40 46 47 47 47 46 45 48 61 51 44 44 45 45 48 52 49 55 62 61 62 62
41 51 46 35 39 38 58 38 22 17 16 17 22 16 14 19 19 20 21 28 31 34 40 45 46 47 46 45 44 52 49 47 45 45 44 46 50 50 52 53 50 53 59 63
58 47 48 46 65 79 18 18 16 19 16 14 14 14 14 18 24 26 26 26 33 37 40 43 46 49 49 47 44 48 45 43 44 44 45 49 45 42 44 48 48 52 61 64
33 43 56 82 36 22 17 13 19 22 18 12 18 14 14 25 34 28 31 32 33 35 39 42 46 49 51 48 44 45 44 41 42 51 48 38 41 46 46 46 50 58 67 66
38 48 44 52 82 86 29 23 29 25 23 19 19 20 21 30 41 21 34 34 34 37 41 45 49 52 52 48 44 46 43 56 46 45 39 42 43 45 46 50 58 63 70 70
66 72 76 58 73 43 21 22 29 31 34 28 29 24 27 30 26 41 44 36 39 41 45 50 53 52 49 45 46 58 55 60 42 35 29 46 48 53 60 65 66 71 73 72
52 63 82 64 91 76 22 29 38 40 31 33 31 31 38 40 39 41 47 47 47 48 52 57 53 48 44 54 68 71 71 50 41 23 32 54 59 69 72 77 77 77 74 76
47 38 44 38 37 29 26 25 28 35 37 36 37 38 38 40 41 41 45 51 51 54 53 51 46 55 69 92 98 70 69 54 26 33 54 68 76 82 83 85 85 78 72 76
35 36 42 42 22 23 25 26 30 33 36 37 38 42 44 48 51 52 51 56 54 48 43 48 71 94 99 95 88 52 30 22 22 31 33 47 76 82 57 89 90 79 78 84
38 38 35 36 27 24 27 31 37 40 46 49 51 54 62 65 58 58 60 55 49 46 83 99 100 99 97 84 48 32 26 23 29 31 34 64 65 84 88 89 94 100 99 98
38 29 48 45 36 38 33 44 55 56 61 70 68 65 64 65 66 63 54 56 89 98 100 100 96 89 69 55 46 25 25 30 33 37 44 64 91 96 91 93 99 100 100 94

GFSCGP_850_rhum_018.txt.gz
RH
20 22 21 20 17 14 14 13 13 10 10 10 9 13 16 16 19 23 28 32 36 38 41 50 50 48 47 61 77 82 88 70 88 76 86 95 86 78 75 71 61 55 57 62
16 20 16 16 14 14 11 13 11 10 8 9 8 12 12 15 17 21 23 30 33 36 47 54 61 66 60 68 78 81 85 84 82 89 84 71 70 75 70 64 55 56 55 59
29 32 27 13 15 13 11 14 16 12 10 7 22 13 13 13 16 17 20 22 26 33 46 55 65 72 73 76 80 77 88 80 77 74 67 69 70 68 59 58 60 61 61 59
23 24 18 13 11 10 18 19 15 15 19 20 19 26 19 28 16 17 20 22 24 29 43 54 65 73 75 77 79 86 85 81 69 66 68 67 59 60 63 61 64 69 70 70
24 32 16 14 22 18 22 22 19 14 14 33 38 31 38 37 37 21 24 26 27 32 41 53 60 70 79 82 80 74 68 69 69 60 58 62 62 63 63 64 64 58 50 46
25 21 18 22 18 16 20 22 18 13 17 55 38 41 33 43 38 30 22 26 31 36 45 55 63 67 68 70 66 66 61 60 64 66 66 63 60 57 58 55 42 52 30 33
19 16 12 16 14 15 14 16 27 58 55 42 17 28 42 29 33 62 55 28 35 44 50 53 55 57 63 66 66 59 59 65 70 68 65 64 56 40 55 62 40 21 27 33
33 34 15 13 13 29 25 15 35 82 82 35 28 29 16 22 23 48 34 32 40 45 46 45 47 50 57 64 65 59 62 68 70 64 58 42 50 65 51 35 19 24 26 27
53 37 26 17 14 14 14 20 16 26 68 39 20 13 15 17 18 16 28 33 39 42 40 39 41 45 55 64 64 59 61 65 62 52 44 54 62 39 27 22 20 30 30 23
62 70 28 19 17 16 19 16 29 25 38 38 20 17 23 23 20 20 24 32 36 40 38 36 38 44 53 62 62 60 60 58 50 48 56 58 50 37 31 32 45 38 32 36
16 29 23 22 21 15 22 21 19 18 35 54 50 22 15 16 18 20 21 31 34 37 36 36 38 44 53 60 60 63 57 49 50 52 61 59 42 46 46 50 52 47 54 54
15 18 42 23 16 16 18 23 18 57 36 48 59 33 14 16 14 17 19 23 31 34 36 36 39 46 53 56 60 62 52 46 53 54 59 53 51 52 50 52 54 56 59 61
20 25 42 29 23 21 22 16 16 20 42 48 70 38 15 14 15 15 18 20 26 31 34 36 42 47 52 55 60 57 49 50 53 52 53 49 51 50 50 51 54 58 62 63
30 24 25 44 26 24 28 21 15 19 60 48 40 19 13 16 17 15 18 19 22 27 31 34 42 48 52 54 58 54 50 53 50 52 49 42 42 44 50 52 54 58 61 64
28 33 25 21 19 23 25 20 19 18 22 33 28 17 13 10 12 11 14 19 20 21 29 31 39 46 50 54 56 52 49 53 52 59 37 36 37 44 51 54 50 53 61 63
31 44 41 45 28 25 27 22 20 18 16 17 16 16 11 13 15 16 16 16 22 21 22 29 37 45 48 51 55 51 48 52 60 49 37 38 42 47 52 46 43 56 56 57
43 64 62 52 38 42 55 43 27 23 17 16 24 19 13 14 16 18 19 18 23 25 26 31 38 44 46 48 50 50 46 52 59 47 45 47 47 49 48 44 51 48 49 53
66 60 66 71 67 67 22 15 16 18 17 15 13 13 12 19 23 22 21 22 23 29 32 34 39 43 45 46 46 46 46 54 51 46 46 47 53 47 38 38 46 47 48 54
37 60 74 96 56 31 22 16 17 19 21 19 19 18 18 24 22 23 24 29 30 30 32 33 36 41 45 47 48 46 48 46 45 46 50 60 44 46 40 46 46 48 55 60
35 57 71 66 80 77 34 23 23 21 32 20 20 22 21 23 63 38 40 35 32 31 32 35 38 42 46 49 48 45 46 45 45 63 61 70 51 34 48 49 54 58 62 66
76 79 86 73 87 66 22 22 23 38 49 31 30 27 26 34 35 39 42 43 41 38 40 42 45 49 51 51 47 44 48 53 68 73 89 62 45 52 56 72 72 64 72 76
67 80 92 79 98 88 21 25 40 45 32 28 30 31 34 37 40 40 37 39 47 47 46 53 53 51 47 49 47 58 74 90 95 80 67 49 32 52 78 69 69 84 81 79
53 49 63 57 63 32 21 24 25 28 30 33 34 34 35 36 39 43 45 47 51 51 50 50 51 52 54 66 72 82 96 91 88 74 44 21 26 42 46 55 42 49 72 77
34 33 53 48 21 22 23 24 26 29 33 37 41 44 47 56 58 53 51 54 50 43 46 53 67 65 68 83 90 87 83 72 74 47 26 28 32 36 43 57 71 74 80 91
42 34 35 36 30 24 25 35 42 47 47 51 58 59 63 61 59 61 54 48 54 57 68 73 74 86 90 88 92 89 82 61 40 30 32 32 36 43 60 79 89 88 88 77
36 34 62 70 43 45 43 54 60 58 62 62 60 59 59 57 56 55 61 67 68 68 74 83 90 92 95 89 71 63 53 38 32 35 36 38 44 52 68 86 94 92 86 91

GFSCGP_850_rhum_021.txt.gz
RH
23 29 34 26 20 21 17 18 18 16 14 18 22 26 30 48 48 43 45 55 36 39 40 40 42 45 59 69 72 75 70 78 80 82 67 78 88 83 73 57 58 44 48 52
26 31 22 20 20 23 21 22 21 14 12 11 20 23 23 51 60 50 58 36 38 41 44 46 47 53 63 70 70 72 73 66 85 75 79 88 77 74 68 59 56 51 52 54
30 32 25 26 29 23 20 25 20 16 10 9 18 19 20 20 19 38 33 28 32 44 46 49 50 54 71 73 72 70 83 78 77 81 83 76 77 73 71 63 56 60 63 60
26 25 26 28 28 18 21 20 23 19 22 25 24 37 37 26 23 23 37 47 46 42 50 55 59 62 74 82 64 81 76 74 78 93 68 71 75 70 65 62 67 67 63 51
33 26 30 32 24 18 23 19 20 23 24 34 31 32 37 36 24 23 26 25 35 43 49 58 66 71 73 75 73 78 76 85 85 72 69 70 69 66 62 71 70 64 48 52
29 19 24 30 22 15 20 22 27 31 33 55 36 43 50 42 25 30 26 24 28 45 49 58 64 70 68 68 74 76 87 74 68 64 67 62 61 62 63 63 59 52 61 44
26 23 26 26 28 22 24 27 49 50 73 67 43 42 42 36 29 33 31 23 30 42 52 60 70 74 73 74 77 76 72 70 68 60 63 64 63 62 60 51 49 58 36 17
36 47 39 31 23 28 30 32 59 62 90 61 49 49 34 25 27 29 25 27 35 47 54 61 71 74 76 74 70 67 66 63 61 62 64 65 63 59 46 52 53 27 12 12
49 43 35 32 30 23 23 33 34 71 72 85 56 31 24 31 41 43 41 39 48 50 54 57 62 63 65 66 67 63 59 60 62 64 65 64 56 47 56 46 25 16 14 14
55 50 47 41 36 22 21 22 40 55 60 52 34 28 42 32 32 36 53 44 47 48 50 51 54 53 54 58 60 61 62 63 64 64 60 48 55 54 46 31 21 23 19 24
51 55 59 45 36 29 28 28 24 32 58 65 73 42 19 24 27 31 43 43 43 45 44 44 45 45 47 52 56 62 62 63 65 62 52 53 58 51 38 33 36 36 36 39
48 56 68 40 25 20 20 36 43 64 38 69 74 51 20 18 20 22 25 38 41 43 42 39 39 42 48 55 61 62 60 62 60 54 49 58 58 45 44 46 48 50 53 54
33 35 60 39 33 32 25 23 21 41 63 52 66 52 20 16 15 16 20 22 38 40 40 38 37 40 47 55 60 60 62 60 51 48 51 55 56 48 52 51 52 54 55 56
31 35 43 57 41 32 33 28 26 31 68 56 63 36 24 23 23 20 17 19 29 36 38 37 38 40 46 52 56 58 63 61 50 48 53 53 51 47 51 50 52 53 49 57
39 42 30 36 37 31 27 29 30 27 36 47 40 34 28 18 22 20 18 18 19 26 35 37 38 42 47 51 54 58 62 59 49 53 52 51 41 48 48 51 50 48 52 55
39 62 44 42 39 42 40 36 32 32 27 23 24 27 19 20 18 18 17 20 22 22 23 28 40 43 47 50 55 59 59 56 50 52 51 46 41 43 57 52 55 43 38 44
53 69 68 58 49 44 51 35 35 33 29 26 31 26 24 29 29 25 24 23 24 25 25 28 40 46 48 51 53 55 56 53 51 52 55 44 41 48 53 60 62 45 44 48
65 65 77 78 67 50 38 24 20 30 25 26 27 35 31 27 34 29 26 28 30 32 32 33 35 39 46 50 51 53 55 51 51 59 50 45 48 56 63 79 54 40 39 47
65 76 85 72 79 49 32 28 28 24 32 30 33 31 28 25 34 41 34 33 32 31 31 32 33 34 39 44 47 49 52 50 57 49 46 50 56 70 90 53 42 43 49 52
50 69 73 82 80 66 52 28 23 23 52 37 33 37 34 29 72 62 39 36 34 38 42 38 38 40 44 48 48 48 50 53 49 50 54 65 90 94 44 42 53 56 56 69
87 83 80 94 90 76 46 26 24 41 52 34 32 35 38 54 48 41 40 45 46 44 45 45 44 46 50 48 48 48 47 50 61 67 80 91 92 67 55 50 61 54 63 53
77 92 94 96 99 87 32 28 38 56 35 33 33 35 35 37 39 44 48 49 48 49 52 53 52 52 51 49 48 52 57 79 86 91 96 96 86 56 44 46 42 42 44 61
72 75 83 75 80 51 24 30 33 29 31 34 39 45 43 51 56 54 52 52 50 51 52 53 54 56 58 57 55 59 72 89 98 98 84 59 50 39 33 39 42 47 58 68
42 39 72 52 34 34 24 26 33 36 44 49 54 55 57 60 58 56 52 48 48 49 53 57 57 56 59 64 67 73 83 83 77 71 59 47 30 32 35 41 56 74 84 89
60 42 48 51 37 48 56 53 52 51 55 60 61 60 60 60 58 57 55 54 56 58 58 58 64 77 81 87 91 85 80 65 53 42 29 32 34 36 39 45 59 76 88 89
45 53 70 79 52 64 66 62 60 59 61 60 61 61 59 58 60 61 64 66 66 72 82 86 88 91 87 73 63 54 45 34 32 31 35 39 40 40 46 54 60 73 94 96

GFSCGP_850_rhum_024.txt.gz
RH
26 32 35 29 29 25 22 27 21 19 18 21 26 54 54 50 50 43 42 42 43 50 53 48 52 57 58 50 40 52 48 46 63 78 77 72 57 62 70 68 61 48 36 37
33 36 28 26 24 27 29 27 26 22 17 16 30 47 56 52 42 34 38 40 42 44 47 51 50 57 59 63 65 63 59 56 67 67 70 65 65 68 75 64 60 50 40 44
32 27 26 25 25 32 31 26 27 22 12 19 22 27 59 51 50 40 39 37 39 37 40 45 48 51 59 66 67 72 72 69 70 78 82 76 77 79 72 73 65 48 48 49
28 25 26 28 31 30 34 22 22 20 24 22 23 35 36 40 50 50 47 46 44 42 42 47 50 51 56 66 68 62 73 78 85 88 76 78 68 67 66 65 62 54 54 55
30 27 28 30 29 23 25 21 21 22 30 30 30 33 31 34 34 48 49 50 44 39 45 48 49 51 64 64 65 74 87 90 96 86 84 66 63 65 70 71 63 61 61 59
28 23 24 27 25 22 21 25 36 42 43 58 47 38 39 41 26 28 37 47 43 38 51 52 55 58 60 66 63 80 88 98 91 92 80 71 70 76 74 68 67 65 62 49
27 25 26 27 28 26 25 33 45 45 69 61 46 46 40 32 33 29 28 30 32 40 54 55 60 64 72 69 77 69 73 88 94 96 80 73 74 75 69 66 67 63 51 52
38 42 35 32 29 32 34 34 54 43 74 53 52 58 38 27 26 25 22 30 38 52 56 56 61 67 72 80 79 71 74 81 85 78 74 74 69 66 65 65 56 55 45 23
48 44 42 40 34 35 38 34 35 70 79 76 62 42 30 34 40 34 42 37 50 54 54 57 64 67 72 79 75 74 73 76 71 66 66 66 65 63 61 52 54 41 22 19
43 45 44 40 31 33 37 26 40 59 65 68 41 38 45 34 32 38 50 43 49 57 58 61 68 74 74 76 74 74 72 71 68 66 67 68 65 58 54 52 42 31 27 23
50 40 49 42 40 39 35 31 30 42 58 58 68 44 26 33 33 32 41 40 44 57 60 62 63 66 66 70 68 66 69 67 65 60 61 64 61 50 54 61 37 31 35 40
46 54 76 53 32 32 33 33 38 62 38 76 76 49 26 26 28 30 33 39 36 51 51 50 50 53 57 58 55 54 54 51 50 53 60 62 57 51 61 50 36 47 42 42
42 46 60 46 30 36 30 28 35 48 64 56 67 50 25 22 19 21 28 36 34 47 51 52 52 50 49 48 46 48 51 55 57 59 62 61 53 52 58 46 52 50 50 52
32 42 41 52 35 34 34 30 31 42 69 58 63 36 29 26 25 20 21 26 38 44 49 48 48 47 46 44 45 51 59 62 60 62 62 56 50 52 53 48 52 52 54 53
42 41 37 37 38 34 32 32 32 35 38 47 39 42 29 23 23 22 18 23 29 43 48 47 44 44 44 47 52 58 62 62 62 62 56 50 52 53 46 53 53 54 55 56
46 49 45 41 44 40 36 35 36 35 30 37 31 33 26 24 21 24 23 24 25 29 33 36 42 42 45 46 50 59 61 62 64 59 52 51 52 47 51 54 55 54 57 70
54 70 68 55 54 44 61 41 35 33 31 31 36 30 35 38 35 30 26 25 27 32 35 35 37 39 42 44 49 55 58 62 66 56 53 53 50 48 56 56 60 72 89 72
65 67 76 77 60 63 45 31 30 36 35 37 37 35 44 47 42 34 34 34 34 33 33 34 34 37 44 46 49 52 57 65 62 54 53 54 50 51 54 59 71 89 71 62
63 80 87 69 73 53 35 28 28 30 39 36 38 36 41 42 38 42 40 37 36 35 34 33 33 34 37 46 52 57 63 61 56 56 56 53 55 60 80 90 91 86 74 54
71 77 79 92 72 60 47 35 25 30 59 39 38 40 36 35 81 64 48 42 40 40 38 38 40 40 39 44 52 60 62 61 62 59 59 67 85 96 94 91 96 68 55 55
84 87 77 96 78 68 48 36 25 35 42 38 39 42 42 55 52 50 49 46 46 46 46 46 46 46 47 50 54 60 63 64 70 77 83 78 95 99 97 92 58 56 48 49
69 88 91 95 92 61 41 29 36 43 42 36 36 38 48 53 53 49 49 50 50 50 52 53 52 52 54 57 61 62 62 67 71 84 97 98 99 100 83 62 47 36 38 40
57 68 78 72 74 47 30 32 35 33 34 40 40 46 43 52 54 53 53 54 54 55 56 58 57 57 56 56 60 64 78 97 97 98 100 86 62 55 39 32 35 37 39 43
51 57 74 62 44 48 35 37 33 32 36 47 49 52 50 52 55 54 54 55 58 60 60 60 61 64 69 75 79 84 86 80 75 63 49 35 27 28 31 34 36 42 45 52
61 49 56 58 68 62 62 58 55 57 57 56 60 59 58 58 57 56 60 62 63 63 67 72 78 82 88 86 76 62 52 44 36 31 30 30 33 35 36 38 41 46 52 66
50 56 69 69 47 58 72 66 61 59 61 61 58 62 63 62 62 64 66 69 74 80 84 83 82 75 65 58 56 54 49 45 41 40 44 47 49 46 48 50 49 52 65 76

GFSCGP_850_rhum_027.txt.gz
RH
29 34 35 28 29 26 26 28 32 24 20 40 44 35 55 56 61 62 60 63 63 64 54 60 59 59 65 58 52 58 67 71 72 74 81 84 77 70 65 70 68 59 46 41
36 38 29 29 27 31 31 33 33 27 20 25 33 40 54 59 56 55 54 54 55 58 67 59 58 57 54 42 54 60 67 69 74 72 74 76 76 69 67 71 69 59 50 48
34 25 27 27 24 29 32 33 31 29 16 25 32 37 58 52 50 47 47 45 50 47 55 59 60 59 54 50 43 47 43 58 73 70 74 78 80 76 73 77 68 64 58 53
31 25 27 30 30 31 37 28 27 27 21 25 22 32 36 59 56 51 42 44 46 46 48 53 58 62 52 52 52 48 49 59 60 65 76 78 82 80 78 77 68 68 60 56
30 30 29 30 27 28 31 24 23 27 31 35 38 38 36 51 57 52 43 38 43 46 46 48 49 50 52 54 57 65 65 72 71 77 80 82 92 81 77 75 72 70 61 59
27 25 26 27 26 26 23 27 38 45 44 54 42 40 40 47 41 41 40 38 35 46 50 50 50 56 58 60 65 67 65 69 83 87 86 100 91 82 79 74 75 70 64 64
28 28 28 27 28 27 31 35 42 43 64 57 46 48 42 28 32 33 34 34 34 36 47 53 55 54 51 55 57 59 64 64 88 90 100 89 93 88 71 72 75 70 68 64
38 42 34 32 29 32 35 34 53 38 65 48 52 60 44 30 28 26 25 23 32 40 44 44 49 57 57 58 59 61 65 66 83 99 97 96 95 91 80 79 75 71 66 50
48 39 39 39 34 30 32 37 36 72 82 76 56 48 28 33 35 49 40 32 27 30 43 44 51 58 60 57 61 63 69 70 76 79 95 98 80 79 84 76 72 68 53 45
39 36 41 40 35 33 31 35 44 62 60 61 53 42 41 36 30 51 53 47 39 39 42 50 54 60 60 58 59 65 70 71 74 72 78 76 74 76 72 68 66 57 53 76
46 33 36 41 42 37 37 35 36 45 61 58 68 50 32 31 31 29 34 40 42 42 44 47 52 58 56 57 60 66 75 77 75 73 71 68 69 68 66 61 55 50 60 38
42 47 62 39 36 33 34 33 38 63 40 79 78 54 27 27 30 30 26 28 35 44 41 41 51 56 62 63 65 67 71 70 68 72 72 72 69 67 65 61 53 56 38 45
46 51 65 46 37 35 34 35 43 51 65 60 69 49 26 28 24 19 27 21 26 36 52 58 60 59 63 66 69 68 70 70 68 70 69 67 67 66 62 55 55 54 45 50
32 47 46 57 42 38 38 35 39 45 72 58 65 38 28 27 30 23 18 22 25 34 39 54 59 63 67 67 72 71 70 68 65 66 62 63 64 65 62 54 57 51 51 52
41 43 37 35 29 38 35 35 40 41 42 50 42 48 36 30 27 24 21 22 24 38 45 49 56 57 58 67 70 70 68 68 67 63 62 64 64 65 57 55 52 52 54 57
49 48 47 46 43 42 39 37 38 40 35 42 38 37 31 27 29 31 25 29 36 42 46 49 50 51 52 58 65 67 67 64 62 62 62 65 66 59 54 54 54 57 59 59
52 68 67 52 53 45 62 47 41 36 34 35 40 35 33 37 40 41 33 31 34 34 33 34 35 39 43 46 48 50 53 55 59 65 69 68 60 54 54 58 60 58 64 82
67 64 75 74 62 70 45 36 33 38 37 37 39 40 45 49 47 40 38 36 37 37 36 35 35 36 40 42 48 54 58 63 68 71 70 66 56 56 62 61 64 90 97 99
63 78 83 72 76 53 38 34 39 37 36 36 48 54 52 48 39 44 38 34 34 35 35 34 35 36 37 40 49 58 66 72 75 72 68 60 60 64 67 77 94 98 95 93
66 80 78 87 67 66 52 37 27 35 58 38 40 50 53 42 72 67 45 41 40 40 40 40 41 43 44 45 50 64 71 75 76 71 65 64 68 80 95 98 97 95 99 85
85 90 82 96 77 64 44 35 24 41 47 38 36 38 40 52 48 50 48 45 45 45 46 47 48 50 50 52 56 68 74 73 71 69 71 80 93 90 94 97 100 98 77 52
73 88 90 92 79 58 38 39 36 43 42 34 39 40 43 44 51 52 51 51 52 52 53 54 54 54 56 61 64 69 70 73 75 90 98 99 100 100 97 80 56 50 44 40
57 68 78 70 69 47 40 31 25 31 34 38 36 38 37 49 53 54 55 57 59 59 58 59 57 57 61 65 64 67 84 99 100 98 92 69 56 53 47 36 35 36 39 42
57 61 66 61 52 53 40 40 35 35 34 35 35 44 48 50 56 57 60 62 61 62 60 60 61 65 72 80 83 82 76 66 53 43 41 37 35 36 36 38 39 40 41 44
66 64 69 68 72 66 59 44 37 37 38 42 51 55 53 50 58 59 62 64 64 64 68 74 77 81 77 66 59 56 48 42 40 42 46 51 56 54 48 50 54 56 55 61
60 64 74 76 60 50 59 56 52 49 57 59 58 60 60 58 59 63 66 68 72 80 83 78 72 66 68 63 56 53 53 53 50 51 48 47 47 49 54 60 56 59 69 80

GFSCGP_850_rhum_030.txt.gz
RH
31 36 36 30 30 27 27 30 34 28 23 44 51 46 59 65 71 79 84 83 82 68 54 52 48 53 67 74 70 72 70 64 70 74 80 90 79 76 70 68 70 67 64 66
37 41 32 29 32 31 31 31 33 27 21 39 44 49 53 68 68 70 72 75 69 66 65 59 56 57 60 52 61 66 72 69 74 75 76 78 83 83 72 70 69 65 58 55
38 26 28 29 28 27 30 32 34 31 20 28 34 39 59 56 56 60 62 60 62 57 59 58 63 60 62 62 51 61 67 74 80 78 83 83 89 84 78 73 72 68 59 54
37 29 28 28 28 29 33 28 33 29 24 30 28 35 34 61 63 57 53 54 55 57 51 52 53 59 57 65 64 55 49 51 64 69 73 78 78 81 80 76 75 71 64 60
33 31 31 31 30 28 32 27 30 28 34 36 38 39 33 56 65 58 53 49 48 48 51 50 49 52 55 55 55 54 59 57 64 67 74 80 86 85 86 83 78 74 69 66
31 26 28 28 27 27 26 28 33 43 45 53 41 43 44 49 50 46 46 48 46 43 45 46 47 50 51 52 60 64 63 72 64 65 71 84 87 96 98 90 80 76 72 68
30 29 28 29 28 29 30 35 42 39 62 57 47 52 45 30 33 40 45 42 38 37 38 46 47 48 50 52 56 71 66 65 62 62 63 71 86 98 99 94 85 77 70 70
40 39 36 30 29 32 33 36 53 34 62 43 51 50 33 31 29 30 27 26 28 33 34 34 40 43 43 48 50 63 57 74 72 72 71 84 94 100 98 98 85 72 71 73
45 38 38 38 34 30 36 40 36 70 80 74 55 44 30 29 39 44 39 33 32 32 34 34 36 41 41 44 45 49 56 58 61 68 78 87 100 92 96 92 85 79 78 73
37 33 39 37 37 35 32 41 49 63 53 59 52 46 40 30 34 44 50 45 35 36 40 40 39 41 44 45 50 54 58 65 65 65 70 86 94 86 81 77 87 85 80 73
41 32 32 41 41 35 41 40 46 50 61 58 67 49 37 28 30 32 39 36 34 34 35 36 38 42 46 44 53 56 58 62 58 68 74 79 80 70 71 83 87 85 78 62
40 42 52 37 34 33 34 41 47 66 46 79 78 58 30 28 30 28 24 24 25 31 34 40 41 43 43 45 53 56 59 62 61 69 75 69 60 68 82 80 76 72 65 49
45 45 57 43 36 37 38 40 42 54 66 64 70 52 27 31 28 21 20 19 23 28 34 42 44 43 45 54 62 62 55 56 56 58 62 65 78 75 73 71 68 62 54 48
32 52 43 43 38 40 42 41 50 48 72 61 66 41 31 28 30 27 19 18 18 23 30 37 41 42 54 64 64 53 52 54 55 61 66 78 75 74 71 67 64 56 49 46
39 42 46 40 33 37 37 35 50 46 45 51 45 48 37 34 32 27 23 20 20 24 34 39 44 54 63 67 65 62 60 66 67 77 79 76 74 73 68 66 60 50 52 52
49 48 42 44 46 43 41 40 42 44 42 44 42 42 36 30 31 32 28 35 41 44 46 49 52 55 60 65 64 64 68 74 77 78 78 76 73 70 70 64 55 54 54 56
52 68 63 51 57 46 61 50 45 44 41 40 48 41 35 39 42 43 39 42 46 44 41 40 41 43 46 48 50 52 60 69 78 80 80 78 74 73 72 65 56 57 61 65
66 63 73 74 65 65 41 38 36 42 40 38 39 38 40 46 48 46 45 41 40 37 36 34 34 34 32 32 34 41 52 66 75 81 83 80 79 79 71 66 66 66 75 91
62 75 79 71 75 51 40 39 42 41 38 42 44 58 55 52 47 51 43 38 37 38 39 40 39 39 41 42 44 50 61 72 82 84 82 82 81 77 71 69 84 98 98 93
66 74 73 82 70 68 54 38 31 32 49 44 52 62 60 52 60 66 50 47 46 45 44 44 45 48 49 49 51 54 64 77 82 81 80 78 76 77 93 88 93 92 99 98
87 93 81 96 77 70 50 34 27 44 47 39 42 47 51 46 41 53 52 51 49 48 49 50 52 52 53 55 61 59 69 75 77 77 76 76 77 91 96 93 99 100 98 76
80 90 89 89 78 71 37 38 43 44 29 33 38 40 42 40 49 52 50 50 52 52 55 57 56 58 61 64 67 73 76 79 78 82 92 100 100 100 90 71 58 49 44 43
62 69 76 69 70 49 39 37 26 25 27 34 34 38 35 38 48 52 53 55 56 57 58 59 58 59 65 71 75 80 99 98 92 79 65 55 48 40 39 37 38 38 40 44
62 59 63 60 52 56 46 36 34 32 27 30 31 34 36 35 50 55 59 61 62 63 62 63 64 69 77 81 80 75 66 52 42 38 36 36 36 36 40 42 46 47 48 54
68 64 74 66 68 66 53 44 38 36 34 35 37 36 39 42 56 58 64 65 65 65 68 71 73 75 72 66 58 51 46 43 41 41 42 42 42 43 43 47 55 59 64 77
69 68 75 68 51 45 39 38 41 40 39 40 38 54 55 52 55 64 66 67 68 72 80 78 72 66 63 57 52 51 52 51 49 49 49 52 54 54 53 44 32 25 19 15

GFSCGP_850_rhum_033.txt.gz
RH
32 30 30 24 30 25 27 30 30 26 21 37 42 40 64 84 94 90 88 85 77 55 56 65 69 61 60 65 76 78 77 73 63 55 78 86 83 80 83 79 66 67 67 70
35 39 30 28 30 30 32 31 29 27 24 35 36 45 48 67 77 74 76 80 69 65 72 63 64 61 61 61 62 76 76 68 59 56 71 80 78 86 84 78 67 71 70 69
37 26 31 32 33 33 31 30 32 30 23 28 30 34 52 56 61 64 70 70 68 62 52 61 59 51 50 56 61 71 76 74 69 66 75 83 86 90 95 76 72 71 68 66
34 31 30 32 30 29 30 29 29 33 26 25 27 25 26 54 58 57 57 66 63 60 58 52 54 55 52 50 58 63 64 65 74 73 73 74 80 83 83 81 77 74 68 63
33 32 34 33 31 30 29 30 31 29 29 36 36 28 25 48 55 54 54 55 57 53 55 53 51 52 51 53 54 54 54 64 73 66 69 67 64 70 83 85 81 75 70 66
32 27 29 28 28 29 28 31 30 39 39 41 40 35 28 29 34 38 43 51 49 46 46 48 52 52 54 56 57 60 64 64 67 70 63 65 71 77 93 92 85 80 76 71
32 30 27 29 30 30 29 33 38 31 44 41 46 45 30 25 25 30 34 42 44 42 43 44 46 45 50 53 59 62 64 65 84 72 68 76 85 92 96 92 89 91 83 76
34 36 34 32 28 29 34 34 43 40 44 33 48 45 21 27 29 31 33 29 31 40 41 39 40 40 40 43 53 63 65 70 54 58 69 80 91 91 99 96 91 94 91 84
45 36 36 38 35 28 35 37 35 60 73 59 44 35 25 23 26 36 43 39 33 29 27 26 36 39 41 41 42 45 57 75 67 57 62 75 86 86 88 99 97 94 94 84
38 35 40 40 37 39 34 35 45 51 52 57 44 43 30 25 24 31 33 34 31 30 30 30 32 37 38 44 45 49 53 57 57 56 73 80 84 79 92 98 80 91 98 82
40 34 35 41 39 33 40 41 44 42 49 47 49 37 32 28 24 31 31 28 28 28 27 31 36 39 45 50 51 52 53 51 54 64 72 66 68 73 80 78 80 86 98 87
38 45 50 35 34 32 35 38 41 53 48 58 60 42 27 29 27 28 29 22 29 28 29 29 33 38 42 48 51 52 54 56 58 49 51 56 62 66 67 66 67 82 100 88
43 43 44 36 34 38 39 38 41 48 55 58 69 39 26 27 26 27 25 20 22 25 28 30 30 36 40 45 45 50 56 58 51 52 53 55 57 62 68 65 73 84 86 86
30 48 40 37 32 38 46 43 43 43 57 52 51 35 28 26 26 24 25 22 19 20 22 33 42 47 51 52 55 58 57 55 54 55 59 62 65 74 91 86 83 82 82 72
40 43 46 37 33 37 38 40 46 41 44 48 40 41 30 28 28 28 26 25 23 25 33 42 47 52 58 61 65 69 78 79 82 83 90 94 90 82 83 81 78 76 68 54
49 44 46 41 44 40 43 39 43 43 42 41 39 40 31 31 31 34 33 39 47 48 51 52 55 56 58 62 64 66 65 64 70 79 83 84 87 82 78 75 73 63 57 55
54 65 58 49 57 49 60 53 43 42 40 40 44 32 33 33 37 40 54 52 53 54 52 47 46 44 44 44 42 42 46 52 62 74 83 84 84 82 78 78 70 65 61 65
62 61 64 69 64 68 38 39 36 38 38 37 36 35 33 38 55 52 51 45 45 44 42 39 38 37 37 38 39 42 44 50 60 70 81 88 89 85 81 79 77 72 78 73
58 68 72 74 62 49 37 39 40 41 29 34 34 37 47 58 55 57 50 44 42 41 40 39 40 41 43 45 47 49 50 56 67 78 83 84 83 83 82 81 78 76 80 98
65 64 64 72 65 62 46 36 35 31 42 35 39 49 54 56 55 48 52 49 45 45 46 46 49 50 50 50 50 48 50 63 71 77 79 79 79 78 78 77 78 89 99 98
77 77 69 75 73 62 44 36 28 46 38 37 42 51 54 47 39 45 52 52 51 52 53 54 55 53 54 55 57 52 64 68 76 78 79 81 84 85 90 97 98 98 97 81
72 77 84 78 78 62 41 36 44 40 28 28 45 48 54 38 49 51 54 54 57 56 58 59 57 58 60 63 62 66 70 78 83 89 94 98 100 98 81 53 41 36 35 35
71 65 70 63 63 52 36 32 26 24 25 31 38 45 42 47 54 56 58 60 61 61 62 62 58 60 65 68 74 79 99 98 91 78 62 48 39 34 33 33 34 35 43 48
64 60 61 57 50 50 40 32 32 28 25 30 34 37 39 41 54 59 62 64 63 64 63 64 64 68 76 80 76 70 63 50 42 38 38 39 40 40 42 46 50 52 54 51
68 60 63 60 52 64 48 42 32 32 31 33 37 39 39 40 58 61 65 66 67 68 69 69 70 73 74 68 59 51 48 49 44 43 41 41 41 38 33 24 17 12 11 11
66 64 67 63 37 38 34 28 36 35 34 35 34 46 48 44 49 62 66 68 68 71 75 74 73 68 63 57 52 51 49 46 42 42 34 26 20 15 11 10 8 8 8 10

GFSCGP_850_rhum_036.txt.gz
RH
26 22 20 14 14 18 17 18 18 17 19 24 20 20 33 53 56 54 55 53 47 49 54 62 67 76 81 86 93 93 95 95 83 94 84 81 94 94 81 78 76 74 69 70
27 24 16 16 18 22 22 19 19 18 19 22 20 19 23 41 55 56 52 54 54 53 50 64 72 70 75 79 88 95 98 100 96 90 84 86 96 98 96 85 77 74 66 69
23 21 22 22 23 24 23 20 20 22 20 20 20 21 28 31 41 50 51 47 47 48 54 60 68 75 74 73 82 87 92 96 100 93 87 94 99 88 87 83 82 74 68 69
24 21 24 24 22 22 23 19 22 23 22 20 21 20 21 24 34 37 42 44 46 44 46 49 63 68 72 74 79 83 84 91 96 98 88 92 84 83 67 72 82 78 71 74
23 24 25 25 21 20 21 23 24 23 22 25 23 19 19 25 27 28 35 38 39 40 41 45 48 60 67 71 75 82 86 89 94 100 96 74 66 90 95 84 85 80 76 76
19 22 20 18 21 20 23 23 23 26 25 30 22 23 18 18 16 15 19 31 36 39 40 43 46 53 61 72 78 66 77 91 98 100 76 76 82 90 100 96 87 82 82 81
23 22 19 22 23 24 23 23 29 29 31 32 30 29 18 14 14 16 17 18 28 35 38 41 46 50 56 65 83 77 90 78 72 76 64 66 70 83 80 86 85 88 86 84
25 29 21 20 22 22 23 22 29 37 32 23 33 26 18 15 17 20 24 23 23 29 34 39 41 44 51 62 79 82 62 71 62 65 68 59 64 74 84 97 88 93 95 91
26 22 22 24 21 20 27 28 22 35 48 34 23 21 16 14 17 20 22 28 26 25 26 33 37 41 50 60 78 85 85 80 67 64 56 50 55 77 85 95 93 100 96 97
22 25 26 31 28 29 27 22 32 32 41 39 25 25 18 16 15 16 16 17 24 31 32 33 37 41 47 54 72 89 90 89 87 68 64 58 67 74 80 98 96 100 99 100
17 22 35 34 32 25 32 30 30 28 32 35 34 25 16 16 15 16 16 20 22 25 35 40 44 50 56 61 72 83 87 87 90 92 76 71 74 76 81 86 77 75 92 99
19 23 30 26 25 25 20 21 25 34 32 36 44 30 15 16 18 19 20 21 24 28 32 44 52 61 66 72 74 79 86 85 86 93 99 86 75 64 59 62 62 74 86 93
24 27 33 28 28 28 25 23 22 27 35 34 52 30 17 19 19 18 19 19 22 29 31 46 59 65 71 77 81 85 94 94 96 98 91 69 58 58 65 67 71 78 95 100
26 22 27 32 23 18 30 24 23 25 36 32 34 23 18 18 17 16 20 22 22 23 29 40 55 67 73 80 74 72 67 74 66 66 74 68 68 69 83 98 100 99 100 100
29 26 24 19 17 16 18 18 22 26 25 29 27 24 20 16 17 16 23 24 27 29 38 48 56 63 72 81 84 91 80 89 93 92 93 94 98 99 100 96 96 96 93 95
29 29 25 29 20 23 23 20 18 24 22 23 24 23 16 17 22 22 25 31 38 46 52 59 64 70 77 81 84 82 81 74 68 73 81 83 87 88 86 84 84 80 76 74
39 37 39 35 36 36 46 32 22 23 23 27 28 21 15 18 21 24 29 39 46 56 61 64 67 70 71 61 60 47 49 56 61 66 72 81 84 84 82 78 75 74 69 62
47 43 40 41 67 77 24 24 22 24 22 22 22 19 19 19 25 35 40 45 51 57 61 62 62 52 48 45 45 49 54 58 64 72 81 87 88 86 84 81 78 75 71 70
42 44 54 73 50 30 29 30 30 30 25 19 22 19 20 31 39 46 52 49 54 61 62 55 52 49 47 47 48 47 48 53 63 73 79 82 83 82 81 81 80 81 84 89
52 52 55 61 51 62 26 20 24 24 32 17 20 22 25 38 42 27 55 58 63 63 63 57 54 52 49 50 49 49 57 62 66 73 79 83 92 98 97 94 96 89 95 94
67 64 70 58 61 36 26 26 26 37 32 24 21 23 32 38 29 45 57 62 64 63 61 61 60 55 56 58 56 54 58 61 76 87 97 96 95 88 92 96 98 92 86 83
59 66 77 57 77 65 30 30 31 26 33 28 32 29 36 44 55 58 62 64 66 67 64 66 63 68 71 70 62 62 68 85 84 91 96 98 97 87 72 56 46 44 55 46
62 50 50 46 38 28 32 24 27 32 25 33 31 35 42 54 56 61 64 68 70 71 75 80 75 77 82 78 73 68 75 86 92 88 64 48 36 31 29 32 38 70 70 72
57 53 58 50 28 34 36 30 36 34 32 32 34 41 53 51 58 62 67 70 70 72 75 81 76 72 72 76 73 71 73 66 52 39 34 33 31 33 33 38 30 40 32 31
43 53 43 44 33 41 42 37 32 37 38 35 39 46 48 52 58 62 68 70 70 74 80 78 79 76 74 72 66 59 52 46 39 36 33 33 30 22 20 19 12 10 15 7
47 44 58 52 29 33 25 31 38 40 42 36 44 52 53 52 57 64 68 70 74 78 80 84 82 74 71 62 54 49 46 43 37 34 26 21 17 14 15 18 52 16 10 10

GFSCGP_850_rhum_039.txt.gz
RH
19 21 20 14 12 11 14 14 15 22 18 20 21 18 31 36 34 41 44 38 41 43 49 63 60 68 71 78 80 84 86 91 94 89 68 66 70 74 78 80 92 91 92 78
20 25 16 12 11 12 15 15 14 13 13 16 16 15 15 29 33 34 36 38 34 35 42 55 64 65 68 73 76 77 81 86 91 86 72 65 66 70 79 83 89 98 96 92
22 17 14 15 14 15 15 16 14 16 16 15 15 15 13 18 29 35 34 35 36 34 35 44 52 61 70 72 77 79 77 82 95 86 71 67 70 76 84 86 89 97 100 91
19 15 17 15 15 15 18 13 16 17 18 21 15 24 24 16 22 28 33 33 32 34 34 36 46 54 60 66 70 76 76 79 88 83 76 67 69 87 94 94 92 95 92 84
20 19 20 18 16 14 18 17 17 18 18 19 16 17 20 12 16 19 24 30 30 30 32 33 38 46 55 58 64 70 72 70 72 77 74 76 75 80 82 99 98 98 90 80
17 14 15 15 14 15 14 20 19 18 20 28 18 18 20 17 13 12 15 22 27 28 29 30 32 39 44 51 60 65 68 68 68 77 78 84 83 88 86 98 98 96 92 80
19 19 14 16 20 17 18 22 31 30 31 31 17 20 16 27 11 11 12 15 23 25 26 27 29 33 40 49 57 64 67 68 69 74 90 70 60 77 69 86 83 96 95 92
25 27 17 16 17 19 20 20 32 83 38 27 22 21 15 11 11 12 12 14 14 22 25 26 24 31 38 45 57 67 71 73 74 83 54 67 57 65 66 75 80 96 100 91
22 21 13 14 15 16 21 23 18 31 28 29 20 16 12 10 11 12 13 20 20 18 21 25 24 25 33 40 49 66 72 79 89 86 61 57 50 54 68 80 98 100 96 82
17 22 15 16 16 16 19 20 27 26 39 44 22 19 17 14 13 12 11 13 19 21 20 21 24 26 28 35 42 57 74 78 90 69 70 57 60 62 77 90 88 97 93 99
16 20 20 22 25 21 24 27 23 22 26 39 40 22 15 14 13 12 12 13 14 17 25 28 28 28 31 33 41 52 71 75 89 92 92 67 66 70 72 86 100 99 98 96
19 19 27 27 16 15 18 21 22 37 31 29 33 29 13 13 12 14 14 15 15 18 21 29 35 39 40 42 44 53 70 73 74 91 97 90 98 98 88 100 100 99 100 100
22 23 33 25 23 21 24 22 20 21 24 34 58 31 14 14 14 12 13 14 16 17 19 29 40 48 51 54 57 60 71 71 70 81 84 87 98 99 100 98 98 100 100 100
24 21 26 32 23 20 24 20 18 20 36 33 29 21 17 14 14 13 13 16 17 17 18 24 36 48 56 63 67 69 77 77 76 78 86 95 100 100 100 100 100 100 99 100
25 33 23 19 16 15 16 18 18 20 21 29 24 21 18 15 14 13 17 18 16 18 19 24 36 49 63 70 76 79 91 94 96 96 95 98 98 99 99 100 100 100 99 100
25 32 27 24 17 16 17 14 14 14 15 17 16 16 13 12 12 13 14 18 21 24 29 36 40 52 62 72 78 89 95 100 100 94 91 99 99 100 100 100 100 99 97 95
30 38 34 37 21 21 32 20 17 16 14 16 22 17 14 14 13 15 16 17 24 33 40 46 51 60 68 74 82 84 86 84 82 82 84 87 87 90 88 82 79 76 75 72
41 40 36 47 56 57 26 17 16 17 16 15 14 15 14 14 13 18 21 22 35 42 49 55 59 63 66 68 70 72 72 75 77 78 79 84 85 85 84 83 79 75 73 68
37 49 50 59 48 30 21 17 20 20 19 14 16 15 14 14 22 29 30 32 41 48 52 53 56 60 62 63 66 67 68 69 71 75 76 80 82 88 89 83 78 76 77 82
53 50 58 52 51 55 27 17 16 16 29 14 14 14 16 18 35 21 36 41 48 52 53 56 58 60 61 62 62 64 67 69 73 79 83 86 90 93 99 96 97 98 99 98
79 75 77 62 54 34 19 15 15 35 27 17 15 16 16 19 25 31 43 50 51 51 54 58 58 59 62 65 67 69 72 75 78 82 85 90 96 100 99 99 98 96 90 94
84 68 77 60 62 68 21 22 27 24 18 21 22 20 19 20 39 43 48 50 51 53 58 58 62 65 66 67 68 71 75 82 91 94 92 90 84 78 80 73 66 63 69 76
54 58 56 41 40 29 27 23 22 18 17 21 24 21 23 34 43 47 49 50 53 56 57 62 66 70 70 69 72 77 88 83 74 81 75 69 65 63 64 66 66 62 67 72
39 40 52 40 32 26 28 28 24 24 24 26 26 25 28 39 44 47 49 52 54 54 58 64 70 73 75 76 80 85 85 80 74 71 69 66 62 60 57 51 46 51 63 51
40 44 42 36 28 25 27 30 30 26 29 29 29 27 31 42 44 46 50 53 52 55 60 68 70 71 73 73 74 72 70 67 68 66 64 62 41 50 49 42 36 23 13 6
35 39 56 54 30 38 31 33 31 30 30 35 33 32 39 40 43 47 50 54 54 58 66 67 71 74 73 74 72 69 68 66 63 60 60 50 43 42 47 50 41 22 16 10

GFSCGP_850_rhum_042.txt.gz
RH
18 20 20 17 15 13 12 16 20 22 24 23 29 46 64 53 37 36 34 38 47 56 59 75 79 77 85 90 78 65 71 85 93 95 81 72 70 75 50 66 84 78 69 92
19 23 18 15 14 13 12 14 16 12 15 15 15 15 32 29 33 37 41 40 44 54 64 64 73 76 84 80 72 63 59 72 70 63 60 52 46 38 43 44 61 64 75 91
22 18 16 16 15 14 13 15 15 20 19 15 15 16 14 29 26 31 37 38 36 40 61 58 66 75 79 73 72 81 85 84 75 67 66 73 64 64 70 68 62 70 82 88
18 15 16 18 18 13 15 11 14 19 19 20 16 26 17 25 25 28 29 32 31 32 42 56 60 67 70 77 78 75 77 78 82 74 84 72 65 65 71 80 82 83 82 88
21 18 17 20 14 11 14 18 21 18 17 21 18 20 13 16 20 28 30 31 31 31 32 43 53 60 63 69 74 75 76 76 76 78 74 78 64 70 69 72 77 84 90 85
18 14 15 17 13 12 13 20 22 19 20 33 21 18 23 25 26 18 21 28 30 30 30 32 42 49 60 64 69 76 74 75 79 74 76 78 74 68 74 83 85 86 84 84
19 18 14 13 16 14 15 20 31 34 37 40 20 18 17 25 21 19 15 16 27 28 28 30 33 42 50 57 61 66 72 74 74 74 72 70 68 78 72 69 75 83 83 88
26 29 17 15 17 18 20 20 35 75 88 46 31 26 16 15 12 11 12 12 17 26 28 28 29 35 41 48 56 62 64 66 71 68 70 70 48 58 72 70 68 69 80 67
27 25 14 15 14 16 20 25 19 63 70 70 61 21 11 12 11 11 11 14 16 15 25 28 28 28 34 41 48 56 65 65 68 68 69 72 48 52 62 65 66 64 59 71
22 29 18 15 15 16 18 18 32 32 56 62 26 20 20 18 13 12 12 13 18 18 17 22 26 26 28 36 44 49 55 64 67 69 73 74 57 57 63 67 68 61 73 90
18 26 28 17 19 19 20 23 27 29 30 48 47 30 31 35 36 14 12 12 14 17 21 23 23 24 26 30 40 49 55 65 70 72 76 79 78 70 70 74 74 76 80 86
18 26 35 28 16 16 18 21 24 41 36 42 61 39 15 19 22 14 14 14 14 16 18 24 30 30 28 28 34 41 54 69 64 76 75 80 72 74 76 74 77 91 94 99
21 27 44 32 23 19 22 18 20 23 29 41 71 43 15 14 13 13 13 13 14 16 16 23 32 38 41 38 37 42 54 67 64 68 72 74 75 89 73 80 100 100 99 98
28 26 32 44 29 24 26 19 23 30 46 46 51 33 25 18 23 25 16 12 13 16 16 19 31 40 46 50 50 50 58 66 70 70 73 86 95 84 84 99 98 98 99 100
30 35 29 25 20 18 22 21 19 25 29 33 30 23 18 16 26 30 23 17 16 16 16 18 24 41 50 58 60 62 70 71 73 74 79 89 91 93 99 100 100 100 100 100
31 37 34 36 24 19 23 18 18 17 18 17 18 20 15 13 21 23 20 14 17 17 16 18 24 45 58 70 74 79 80 82 86 96 93 94 96 98 99 98 97 99 99 99
35 41 41 48 31 28 38 25 18 19 16 16 20 17 14 14 15 20 17 13 15 18 24 30 32 49 61 70 78 87 88 94 91 91 94 94 97 100 100 100 100 100 100 100
40 39 40 56 62 55 26 18 16 18 16 14 15 14 13 13 13 14 16 17 21 26 33 41 48 60 67 77 84 88 88 86 85 82 81 84 84 83 84 86 83 79 76 74
49 64 80 67 55 36 23 20 22 23 22 16 16 14 13 12 13 22 22 23 25 33 41 49 57 65 70 72 76 74 75 75 76 78 80 81 81 81 83 84 82 78 74 72
48 50 80 75 62 64 37 22 16 17 30 18 16 17 16 16 40 25 28 31 37 44 50 55 60 63 65 66 68 69 71 71 73 75 77 80 82 84 91 95 91 89 97 99
76 80 92 80 73 52 27 21 17 35 37 19 18 17 16 24 22 23 26 38 43 47 50 55 58 59 62 63 63 64 66 69 72 71 75 84 90 87 84 84 98 100 96 92
84 96 91 77 79 76 25 27 29 28 20 21 18 18 20 19 26 26 34 43 47 48 52 56 57 58 60 63 64 67 70 73 76 79 83 87 86 86 98 96 86 76 79 79
69 58 74 69 65 62 60 27 23 21 22 22 21 21 21 23 34 37 43 47 47 48 54 54 58 62 64 66 67 71 76 82 82 78 76 76 69 71 68 67 64 66 77 81
30 43 58 64 46 46 59 35 30 27 30 28 23 23 25 24 37 42 45 46 47 49 53 56 62 65 66 65 69 77 83 76 76 77 69 64 62 62 62 63 58 62 59 53
39 51 52 50 42 31 30 29 28 32 31 30 28 28 28 26 39 44 46 47 49 51 53 58 65 67 69 71 77 82 83 75 72 69 67 64 59 52 48 45 38 31 29 19
30 34 51 57 34 46 40 37 33 36 33 31 30 34 31 29 40 44 46 48 50 50 56 63 68 72 74 78 78 73 69 69 68 66 64 48 46 49 49 41 33 25 20 12

GFSCGP_850_rhum_048.txt.gz
RH
23 34 39 35 32 28 28 30 31 24 26 41 48 46 45 61 62 69 69 78 85 79 80 84 87 88 84 94 99 100 98 86 81 85 82 68 60 58 71 64 54 49 49 46
30 38 29 29 28 28 28 30 30 22 25 32 41 48 48 57 63 62 66 81 83 89 85 69 80 80 80 79 95 98 100 96 91 84 75 72 62 60 65 62 55 54 46 42
32 30 25 28 28 28 28 30 28 22 22 25 42 42 49 49 51 57 60 59 73 77 75 72 73 67 70 77 85 96 98 91 90 87 75 68 70 74 76 74 56 51 44 48
35 24 27 30 29 25 31 24 22 24 29 36 24 39 53 49 56 58 55 60 69 78 67 74 64 63 56 63 72 78 82 81 78 85 74 72 71 71 66 55 52 47 44 64
41 32 32 32 28 24 28 27 24 25 29 33 31 37 39 42 64 59 49 51 56 59 58 70 65 53 46 51 60 63 66 65 66 70 69 72 76 79 74 62 51 44 51 57
34 23 25 26 23 24 22 23 26 33 39 51 40 42 44 68 51 49 48 43 45 56 60 58 57 61 54 48 53 58 60 63 70 77 86 86 84 76 74 63 59 52 45 43
29 29 24 23 27 24 23 35 48 51 60 61 49 52 48 32 40 39 44 44 43 42 59 65 69 70 67 60 49 53 55 60 67 71 69 67 65 67 60 53 51 51 57 64
41 50 30 25 27 28 29 33 55 60 75 56 56 51 40 30 28 21 36 39 44 47 47 60 61 62 63 58 53 48 47 44 47 49 46 48 53 58 58 63 69 59 62 67
49 42 25 22 22 24 28 35 32 72 81 82 62 54 36 28 23 21 29 34 41 45 48 50 53 57 58 59 56 48 47 46 45 47 52 57 61 66 73 81 80 69 66 70
34 44 29 24 21 23 24 30 46 65 75 65 64 63 55 36 21 21 19 32 37 40 43 44 52 49 56 50 50 55 54 45 48 56 56 57 63 69 73 74 76 77 72 74
27 36 35 30 33 28 29 32 37 50 65 72 72 56 37 33 27 28 23 17 20 30 38 40 44 45 44 46 57 53 56 60 61 58 48 47 52 61 75 82 81 77 72 75
29 36 41 33 27 25 26 30 35 60 58 65 78 56 28 33 31 27 21 17 21 22 24 32 34 36 44 47 49 49 47 57 58 55 57 56 69 73 79 76 79 90 84 71
56 43 53 44 31 27 32 30 30 40 58 68 76 59 33 33 30 21 24 19 17 20 23 23 28 35 41 47 47 41 46 50 54 56 61 58 70 64 72 80 73 67 77 87
54 49 42 45 36 33 36 32 30 33 64 53 62 38 36 31 30 25 22 22 18 18 24 26 27 30 33 36 39 38 42 51 54 60 58 57 59 66 74 76 76 66 58 79
76 83 53 38 29 29 29 26 32 38 39 48 40 49 36 36 32 28 21 20 24 20 18 28 30 32 35 38 35 38 39 50 59 61 63 65 60 76 84 78 75 76 96 100
85 93 80 51 36 30 31 36 30 31 33 33 31 41 33 27 25 28 25 23 23 20 18 17 30 33 40 41 36 35 37 45 50 55 61 68 71 88 69 72 80 90 100 100
83 96 98 74 40 38 48 36 33 33 31 35 48 41 31 30 29 30 25 24 20 16 17 17 18 25 30 32 32 35 41 50 64 69 74 76 78 79 88 98 98 98 100 100
93 92 98 94 65 62 39 26 26 30 30 28 25 24 26 26 18 14 18 21 20 17 18 18 16 17 30 37 43 47 54 63 59 67 70 80 99 94 99 99 100 98 97 100
76 91 99 99 94 58 45 36 33 36 32 28 26 23 21 17 19 20 16 16 18 17 17 19 17 20 35 45 53 58 64 71 73 85 93 99 100 100 100 100 97 100 98 97
87 85 86 98 95 98 49 38 28 25 44 25 27 28 28 24 34 34 16 16 16 17 18 21 22 25 43 57 64 70 75 80 83 86 96 100 99 100 95 95 94 83 98 100
99 99 96 99 96 86 60 56 39 45 47 61 52 35 30 32 33 17 16 19 20 19 21 20 25 30 45 61 71 78 84 86 86 86 92 96 95 91 83 74 76 81 88 88
91 96 99 98 99 78 68 53 56 62 61 54 52 49 49 37 27 19 22 24 22 23 27 30 35 50 65 72 77 84 86 85 85 86 87 87 82 76 73 71 72 78 76 76
76 76 90 86 73 58 51 49 52 55 60 54 58 41 40 39 34 26 22 24 28 28 30 38 48 65 76 79 79 79 80 80 81 81 78 76 75 73 75 78 80 86 94 99
46 63 73 81 53 56 45 51 39 38 44 47 47 46 45 47 37 33 36 35 39 43 42 46 59 66 71 74 73 73 73 76 77 75 77 81 84 91 95 99 99 100 100 99
60 60 57 70 54 47 40 40 36 35 30 33 39 36 44 49 40 36 37 42 44 44 51 54 59 63 66 68 70 71 72 72 73 77 83 91 95 92 92 97 99 93 96 88
93 97 97 83 81 77 47 34 36 39 42 35 38 38 34 43 40 35 35 45 45 49 54 58 61 62 64 67 68 70 72 74 76 85 94 94 91 92 84 73 83 88 86 86

GFSCGP_850_rhum_051.txt.gz
RH
26 34 42 35 33 30 28 31 34 31 24 32 35 48 48 62 71 84 75 74 60 53 64 75 78 96 97 97 99 98 100 100 95 81 75 98 78 85 84 76 67 55 76 65
32 38 29 30 32 32 33 35 34 28 25 39 38 45 48 70 63 69 70 66 61 58 69 73 72 86 99 99 100 100 100 100 83 77 85 90 90 94 84 73 58 60 67 58
43 31 28 32 34 35 36 36 33 31 25 34 35 37 38 54 58 65 66 60 59 54 54 66 58 69 84 83 84 98 100 99 100 96 90 85 98 92 74 60 59 55 50 49
38 29 30 34 33 33 39 30 30 32 31 37 30 46 32 46 62 66 65 67 63 59 56 66 50 50 61 67 81 94 96 98 90 87 78 81 92 79 60 47 57 56 50 45
48 38 35 34 31 30 35 30 34 34 36 34 32 40 35 50 61 60 63 62 62 56 53 46 44 35 43 56 68 77 82 88 89 86 85 84 71 66 67 56 66 63 60 57
36 28 31 33 29 30 26 29 31 37 44 54 39 42 48 47 44 48 47 57 55 57 55 47 42 47 38 46 57 67 72 71 71 75 83 81 74 70 67 64 66 67 68 59
31 34 29 25 30 28 31 35 51 51 60 62 44 59 53 35 39 39 49 49 52 49 52 50 48 51 44 41 41 51 58 59 60 67 75 74 68 67 66 63 61 58 54 51
40 46 31 29 32 34 36 39 59 61 71 49 55 59 42 33 29 30 35 40 44 52 52 46 41 42 47 42 38 41 46 54 59 59 62 65 67 65 65 65 60 59 54 48
48 41 28 27 27 29 35 40 33 65 81 84 61 49 37 32 33 33 28 41 47 42 45 45 43 38 43 49 44 36 37 39 47 50 56 57 59 60 55 56 60 60 54 51
35 46 33 27 24 26 27 33 46 64 70 75 58 60 49 36 30 25 24 39 43 40 43 44 48 46 41 46 52 46 37 38 46 54 55 56 54 57 54 55 45 43 50 58
30 39 36 30 36 34 33 37 41 49 63 61 64 55 50 43 36 26 21 19 25 41 41 41 41 43 46 54 54 51 50 45 44 39 43 48 46 45 52 50 46 51 59 70
36 45 46 34 28 26 27 33 41 52 55 68 75 48 33 35 34 31 24 21 17 17 33 36 34 41 47 53 56 48 56 55 47 45 45 48 49 52 58 60 64 64 73 78
58 61 56 42 34 32 34 32 35 47 60 59 66 54 34 36 33 27 25 20 17 20 24 32 37 38 41 48 56 59 55 51 54 59 56 53 54 59 58 59 62 67 71 70
54 70 67 68 49 38 40 34 35 38 58 53 52 42 34 32 34 31 26 23 18 17 20 24 28 29 32 36 42 46 50 48 49 59 64 66 62 63 64 66 73 73 74 76
74 91 84 82 67 53 36 34 37 38 41 47 40 47 35 35 34 32 21 20 22 20 18 21 23 23 26 30 31 37 34 42 42 48 59 63 67 65 67 71 76 79 81 81
81 85 94 82 66 51 44 34 31 30 40 40 35 41 35 30 27 31 26 23 24 20 19 18 20 23 25 23 26 27 29 33 38 40 44 58 70 69 64 70 79 75 82 87
87 90 95 93 82 87 65 44 35 34 35 36 46 39 32 35 36 34 26 24 23 21 19 19 18 20 26 25 25 23 24 34 38 38 45 59 67 70 74 72 78 75 89 100
90 87 94 99 84 98 59 41 32 35 33 33 30 28 31 33 22 21 21 22 21 20 20 18 18 18 22 27 30 30 35 40 45 46 50 61 68 78 79 81 76 84 100 100
78 88 98 95 86 65 46 45 50 74 60 34 31 29 25 20 21 20 15 15 14 14 15 17 18 17 17 29 31 37 40 45 53 54 56 59 64 73 88 98 98 100 99 99
88 83 87 98 91 86 40 31 39 50 66 54 61 49 36 29 44 35 16 15 16 14 13 15 19 20 19 25 38 42 43 51 51 58 60 60 71 98 100 99 99 100 100 100
99 99 96 99 95 86 61 48 55 68 73 61 58 55 52 43 42 31 25 19 17 16 16 17 22 20 20 24 37 50 62 65 66 74 81 99 99 99 99 100 100 99 99 99
89 94 97 95 97 91 62 69 76 68 51 68 58 57 57 52 41 31 25 23 23 22 21 21 21 22 23 29 42 56 71 81 91 94 95 100 100 100 100 100 100 99 99 98
87 79 91 87 81 56 66 52 40 44 56 52 70 46 49 49 47 42 34 35 35 35 28 22 21 22 30 47 67 80 88 92 92 95 100 100 100 100 100 100 99 100 100 100
55 64 78 76 39 47 46 50 50 49 55 43 48 46 42 45 49 42 39 37 33 37 44 38 43 50 53 72 85 94 90 89 90 92 96 96 93 89 88 89 87 84 83 86
68 65 80 70 71 73 47 64 54 49 53 53 52 40 39 43 44 44 42 41 38 44 49 50 57 66 75 81 83 86 84 82 85 87 87 87 89 92 94 100 100 100 100 99
86 88 92 92 94 98 93 78 66 58 60 57 52 42 39 41 42 41 41 47 51 47 56 64 66 69 72 76 78 80 81 81 81 83 87 91 94 98 98 98 98 99 100 100

GFSCGP_850_rhum_054.txt.gz
RH
38 44 45 37 34 31 29 33 34 32 27 26 31 35 30 56 93 94 91 85 69 68 82 92 86 86 96 94 90 96 98 100 100 100 99 95 71 91 62 51 50 56 52 47
37 43 34 30 33 33 32 34 37 31 26 30 36 42 44 58 74 78 83 78 62 69 81 88 80 74 88 97 99 98 97 99 100 99 89 96 76 80 64 78 65 66 52 59
41 35 30 31 38 37 39 39 36 32 32 31 40 43 34 45 63 62 62 61 56 58 66 75 80 67 66 81 95 96 98 99 99 99 91 81 97 86 65 97 76 63 60 62
43 34 33 36 37 35 42 36 33 34 36 44 36 59 35 31 53 66 66 60 55 53 63 62 66 61 60 62 78 96 99 100 100 99 74 71 100 79 65 94 89 74 59 68
47 43 40 39 37 33 36 33 36 35 40 39 36 44 37 47 48 52 60 57 50 48 53 53 47 50 45 56 60 80 99 98 92 91 84 85 96 84 71 81 83 68 62 64
38 33 35 34 31 32 30 31 35 41 48 60 42 42 46 35 40 34 43 45 43 43 46 51 51 53 48 50 54 63 90 98 100 99 89 80 82 85 81 84 78 65 57 57
32 38 31 26 33 33 33 41 53 53 69 68 44 54 44 35 32 35 34 35 38 40 40 49 52 52 54 41 40 56 67 78 91 95 97 97 86 77 79 83 73 62 55 48
43 42 35 31 35 39 42 43 63 65 70 50 57 64 44 35 32 29 28 32 35 41 39 41 42 46 45 43 33 35 48 60 65 78 84 85 82 79 73 69 65 64 60 50
46 42 28 28 30 30 39 46 36 67 75 81 61 48 35 31 33 31 33 32 42 38 36 33 39 40 42 43 40 31 32 42 52 55 62 71 74 74 73 72 66 59 58 62
38 44 34 29 27 30 32 37 53 63 69 73 60 59 42 28 27 34 29 39 32 36 38 38 38 39 38 39 40 41 35 32 34 42 44 50 56 63 68 68 63 61 58 51
33 41 38 29 36 38 36 39 44 49 63 59 61 56 49 37 34 34 31 22 24 32 32 30 29 32 41 42 38 39 43 42 33 30 35 39 39 44 50 53 55 56 55 54
48 44 48 33 29 29 30 39 48 61 54 74 73 51 31 39 36 34 30 24 21 18 21 25 28 36 36 42 45 41 42 46 42 37 33 35 43 45 46 49 51 54 54 54
52 71 63 52 37 33 34 35 36 52 58 64 69 52 34 36 34 31 30 22 21 18 17 17 28 31 32 33 37 45 46 41 46 49 43 40 40 41 45 45 44 53 50 46
61 72 78 83 77 73 74 50 38 41 58 54 60 41 33 31 32 25 25 21 20 20 18 21 24 22 25 28 30 35 39 45 49 52 54 52 48 46 46 45 48 49 49 52
71 72 84 80 79 70 68 60 47 44 45 48 38 49 38 32 34 31 19 20 22 21 20 18 22 21 21 26 25 28 29 36 42 48 51 46 50 57 56 55 56 58 61 62
76 82 88 78 67 61 59 61 49 43 40 46 44 43 35 30 28 29 24 22 24 21 21 18 18 24 25 20 22 22 22 24 32 37 33 38 54 60 67 69 69 72 72 77
82 85 84 76 79 64 68 56 47 55 45 39 48 40 32 32 36 35 27 24 24 20 20 21 20 19 18 19 18 22 19 23 30 29 29 36 46 58 68 75 83 82 88 99
87 84 89 92 84 81 44 45 56 53 48 35 38 48 35 34 22 19 22 22 20 21 19 17 17 19 19 18 18 23 23 24 30 34 35 38 44 55 70 81 93 99 100 100
87 88 97 95 91 68 48 42 60 54 48 30 52 64 60 48 30 25 19 19 18 17 16 15 15 16 19 20 19 21 28 28 35 36 41 45 49 59 76 90 100 99 99 99
87 79 85 97 96 82 46 28 46 50 61 64 68 72 70 63 61 38 24 27 20 18 18 16 15 15 17 19 19 19 29 34 38 40 47 52 58 70 92 100 99 100 100 100
98 96 88 90 96 84 59 57 52 78 42 54 61 64 69 76 60 56 50 37 33 19 19 17 16 17 17 22 22 20 36 47 47 56 64 78 79 99 99 98 99 100 100 100
93 94 98 86 97 92 62 58 55 54 44 51 51 39 44 49 55 58 49 48 39 33 27 28 25 27 30 30 31 39 52 58 70 84 96 98 100 100 99 99 100 100 100 100
82 81 89 84 79 57 67 51 45 47 49 42 39 46 46 49 51 50 50 48 44 40 41 51 51 41 40 47 57 66 71 81 89 98 97 99 100 100 100 100 100 100 100 100
64 72 82 83 54 64 69 66 69 72 71 52 45 46 53 53 61 48 45 50 46 49 53 59 66 65 63 55 64 85 93 95 98 96 99 99 100 100 100 100 100 100 100 100
63 73 75 77 76 77 80 96 81 77 74 75 66 67 69 64 54 58 50 51 54 55 59 67 76 84 78 88 82 93 97 96 93 93 98 100 100 99 96 92 90 88 86 88
88 86 88 87 82 97 88 100 90 84 83 76 73 64 66 65 61 61 62 60 65 65 66 75 72 84 84 91 92 94 94 91 89 90 93 92 90 89 90 92 92 98 99 100

GFSCGP_850_rhum_060.txt.gz
RH
34 32 30 21 20 16 13 16 15 10 14 19 18 16 13 13 21 28 35 41 48 54 57 67 79 91 97 89 90 99 100 98 100 100 92 85 83 87 82 70 92 71 73 67
37 40 24 21 19 19 16 18 16 12 16 18 13 13 13 13 16 19 27 36 44 52 59 68 78 87 94 98 96 97 100 100 100 100 96 83 80 82 84 82 79 79 78 68
34 28 26 28 23 23 20 19 18 17 17 16 17 18 15 13 18 21 29 31 37 46 55 64 75 80 92 95 88 100 99 99 94 96 100 96 93 94 93 89 76 72 70 62
24 18 28 30 26 20 22 16 18 20 22 17 18 21 15 15 15 14 15 31 36 43 50 58 68 75 83 89 99 100 99 97 100 94 100 99 93 84 82 85 77 66 70 83
28 26 23 28 25 18 22 17 23 21 23 20 16 20 15 15 18 14 13 15 33 38 46 55 66 68 71 83 95 97 99 94 99 98 99 99 97 85 86 80 81 97 67 60
27 26 23 20 19 22 20 23 24 24 22 31 20 21 17 14 15 12 11 12 21 34 43 52 63 73 72 76 89 98 100 97 93 98 99 99 99 87 88 79 86 82 68 73
26 28 26 25 20 22 23 26 31 34 37 33 21 25 21 16 15 14 14 14 22 34 40 50 60 71 71 74 73 83 93 99 97 98 98 100 100 95 93 76 72 69 84 79
29 37 29 26 26 26 29 26 27 40 37 28 28 30 21 15 16 18 19 18 21 30 40 47 53 67 70 73 74 52 63 99 97 99 99 100 100 100 91 80 68 72 80 69
30 28 24 26 25 23 30 34 22 29 41 39 29 25 20 15 14 14 14 16 18 20 36 43 51 64 70 72 51 36 57 88 96 94 99 99 99 99 98 85 71 76 79 65
27 32 22 27 26 25 28 23 38 33 42 44 29 30 24 18 16 14 16 18 19 24 32 42 48 59 67 73 58 39 51 78 88 96 97 98 99 100 99 98 87 82 81 69
27 35 35 28 32 32 32 34 29 27 29 36 36 29 20 18 19 20 18 18 20 22 32 42 45 54 63 70 74 60 48 71 79 89 94 96 96 97 99 97 92 90 88 86
26 36 34 30 26 22 23 27 28 36 38 35 36 28 19 21 19 21 20 19 21 23 27 36 46 53 60 66 72 74 66 69 66 77 85 89 95 97 95 94 96 96 94 86
50 32 34 26 23 28 29 26 27 27 30 39 48 33 18 20 19 17 17 20 20 22 23 33 40 47 55 61 67 70 70 60 65 72 69 76 66 76 62 57 67 93 97 95
58 55 33 35 27 34 44 35 37 32 40 36 33 29 22 20 19 19 20 21 20 21 23 25 34 38 47 54 60 66 70 75 75 75 70 63 45 36 35 42 57 52 76 98
56 69 52 50 47 46 44 41 37 39 36 40 30 29 23 22 27 29 27 24 23 22 21 23 25 27 37 45 54 58 64 71 73 77 76 51 48 48 52 51 54 54 59 54
45 50 52 46 41 43 42 35 33 32 35 34 31 30 25 20 22 31 33 30 30 29 26 24 23 24 26 31 41 48 36 41 57 56 40 67 71 57 52 60 57 57 54 60
49 55 49 42 42 44 43 34 29 35 34 34 40 29 21 19 24 32 36 35 36 38 37 34 27 27 27 31 35 42 48 59 43 39 43 55 67 69 74 81 87 74 71 74
49 67 64 48 66 53 30 33 31 37 33 31 25 24 30 35 38 38 42 48 48 51 49 46 43 28 32 29 29 34 44 53 38 33 47 59 59 62 75 85 78 86 90 88
45 57 70 62 48 30 26 30 36 41 29 31 30 32 33 36 42 33 45 53 54 54 53 54 53 50 31 25 28 34 36 46 56 58 53 66 75 72 79 75 69 78 95 98
46 51 65 76 58 58 29 35 36 30 29 30 31 31 34 36 48 33 50 56 56 57 62 69 75 70 62 51 40 30 34 46 53 60 63 71 79 84 84 88 92 92 92 95
74 69 72 70 64 48 35 33 38 38 49 45 43 40 41 40 43 50 58 58 60 65 74 84 86 92 64 66 61 46 52 53 60 67 74 80 87 93 95 95 91 88 91 98
64 61 70 60 69 68 44 41 42 64 56 66 64 61 57 51 58 62 59 66 71 74 78 89 89 98 99 90 95 94 77 50 56 60 68 79 80 84 97 98 99 100 99 100
63 43 52 45 45 54 60 62 72 76 74 74 74 74 72 68 67 67 71 76 76 68 84 95 96 98 98 99 100 100 100 98 100 100 99 100 100 100 100 100 100 100 100 100
42 45 54 52 34 43 62 73 77 78 79 79 78 78 75 73 74 74 76 81 84 66 77 100 98 94 97 99 100 100 100 99 100 100 100 100 100 100 100 100 100 100 100 99
40 46 40 40 34 53 74 81 81 78 83 81 81 82 82 83 82 84 85 87 82 81 90 98 100 94 98 98 100 100 100 100 100 100 100 100 100 99 98 99 99 100 99 99
42 38 51 46 70 69 68 88 87 81 82 83 82 83 85 92 97 99 98 99 96 79 96 99 100 100 98 100 99 100 100 100 100 100 100 99 100 100 100 99 98 99 100 98

GFSCGP_850_rhum_066.txt.gz
RH
31 37 26 32 28 24 21 23 24 17 10 11 13 13 11 11 11 16 17 17 18 26 32 41 49 57 72 86 98 98 100 100 98 99 98 96 100 100 100 99 97 82 89 56
45 63 33 21 24 23 24 33 31 20 12 12 12 13 11 10 11 10 13 16 18 21 32 40 50 56 68 81 92 98 99 98 96 99 100 97 98 100 100 99 94 81 68 61
58 43 31 35 24 27 26 30 26 21 14 12 13 16 14 11 8 9 9 12 15 20 29 40 50 56 71 77 89 97 99 99 96 100 98 100 100 100 99 91 85 72 66 63
69 60 42 53 42 21 28 20 20 20 21 22 14 23 16 13 11 9 10 12 13 14 23 38 48 55 65 73 81 88 96 98 97 100 99 90 97 93 87 79 83 74 64 59
84 59 58 66 58 27 29 25 28 24 21 23 19 21 18 12 12 10 11 12 13 14 17 34 45 52 58 69 79 86 96 99 99 100 99 92 90 97 90 78 82 83 82 81
48 39 59 59 41 38 31 40 38 28 27 35 23 23 23 18 13 10 10 10 10 14 17 26 40 49 55 64 76 89 98 86 99 100 100 99 90 87 99 77 83 90 86 70
41 44 41 28 38 29 28 52 53 50 46 44 23 24 24 17 12 11 12 10 10 13 18 23 37 47 51 59 73 81 90 91 95 100 98 97 100 90 93 87 74 78 85 73
67 65 44 32 36 46 32 45 51 76 59 37 22 27 21 14 12 11 11 11 10 14 19 22 31 42 49 55 69 80 88 94 95 99 99 94 95 96 93 85 83 74 68 68
46 53 26 32 32 36 40 58 34 37 42 50 36 20 15 14 13 11 12 12 12 16 20 22 27 39 46 51 62 74 82 90 93 100 98 99 93 98 96 90 85 86 80 80
31 43 29 21 30 32 34 27 48 37 70 68 36 27 25 18 17 13 13 14 15 16 16 22 26 36 46 49 55 66 74 80 82 91 93 99 100 99 98 98 95 92 82 85
36 37 35 29 27 39 38 39 43 44 40 54 55 44 26 23 19 20 19 16 17 18 18 20 26 34 45 49 52 59 68 73 80 85 88 98 99 100 99 98 98 97 98 91
47 38 42 35 26 35 30 43 37 61 54 41 48 43 24 24 22 21 18 20 20 19 20 22 26 31 43 48 52 55 62 66 70 76 80 81 99 100 99 98 100 98 98 91
47 48 48 38 42 36 44 32 40 45 69 92 70 41 24 21 21 21 24 23 21 20 21 24 29 31 40 47 50 53 59 63 64 71 76 82 80 97 98 96 98 98 94 95
51 60 61 50 40 61 44 34 40 45 75 72 72 45 44 31 28 26 25 23 22 22 26 30 31 32 35 41 47 52 56 60 63 62 68 78 79 73 69 85 96 94 91 97
60 85 67 65 56 34 31 36 36 80 68 74 58 51 37 41 29 24 25 29 30 33 36 37 36 37 36 37 40 44 50 56 61 64 62 66 77 84 87 87 86 85 88 92
46 86 60 69 49 43 36 38 31 41 33 28 33 43 37 27 24 25 31 39 41 42 44 44 47 47 46 45 40 34 41 47 54 60 64 64 65 73 82 82 95 98 98 96
59 52 68 80 79 67 56 38 45 43 49 34 69 60 55 35 21 24 41 44 46 48 52 56 62 65 68 63 56 50 42 35 48 51 57 66 66 66 73 85 88 82 89 94
53 57 78 84 94 84 34 24 27 29 30 26 38 36 29 27 24 38 46 48 48 50 55 60 66 76 65 62 60 60 53 44 39 42 52 60 68 69 68 74 83 87 92 95
40 49 84 95 81 64 40 27 28 32 43 60 63 24 23 24 31 50 47 48 50 52 59 65 76 78 66 66 66 67 64 78 69 52 46 54 58 66 69 71 74 81 90 93
39 47 65 72 89 71 32 23 19 24 57 35 34 31 30 27 60 64 49 54 55 55 62 68 80 75 76 83 91 98 89 81 78 71 54 45 52 58 59 66 72 76 82 89
56 61 72 74 81 54 24 25 26 49 63 42 45 51 55 58 55 54 56 58 60 61 68 75 84 80 92 93 97 95 99 98 91 85 90 81 64 61 62 66 71 73 79 86
53 66 74 61 63 66 29 31 43 60 49 49 54 58 57 56 57 58 60 64 65 68 74 82 89 93 94 96 90 95 97 99 100 99 99 96 92 80 76 71 72 76 78 82
69 45 53 45 46 47 49 54 54 54 57 59 60 61 62 60 61 61 64 71 74 78 83 90 96 99 96 98 99 100 100 100 100 93 98 99 100 100 100 99 97 92 92 98
45 36 43 41 27 46 56 55 56 59 60 60 63 64 67 66 69 72 81 90 95 99 100 99 99 99 100 100 99 99 99 99 100 97 93 98 100 100 100 100 100 100 100 100
91 50 58 49 72 68 68 62 59 62 62 61 64 66 70 70 76 82 93 99 99 99 99 99 99 99 100 99 100 100 99 99 100 99 95 89 96 100 100 100 100 99 99 99
63 75 66 95 90 91 68 66 65 67 69 70 70 69 74 78 85 94 99 100 100 100 100 100 100 100 100 100 100 100 99 99 100 100 100 100 93 97 96 97 97 100 97 93

GFSCGP_850_rhum_069.txt.gz
RH
34 42 44 32 31 33 34 34 29 24 23 28 24 17 15 12 14 21 19 17 17 34 37 47 49 50 49 69 83 93 99 98 98 99 96 96 98 99 100 99 94 89 82 72
52 56 43 35 39 37 34 34 31 25 24 25 21 16 15 14 15 15 20 17 16 31 41 48 49 50 50 56 84 94 96 98 98 95 97 81 79 93 98 99 99 92 87 74
53 55 42 46 55 51 42 34 30 31 26 23 22 20 16 14 13 12 14 16 17 27 40 47 48 50 51 55 75 86 98 98 98 99 99 99 98 95 100 100 100 100 88 88
72 58 52 47 48 42 60 35 27 27 29 42 26 34 21 16 15 14 12 15 18 26 35 41 47 51 49 55 72 82 94 98 94 99 98 98 99 97 97 97 100 100 94 95
66 72 72 72 51 42 61 44 41 44 51 50 37 33 25 20 20 16 14 11 15 19 34 40 43 44 49 51 66 80 86 95 92 95 96 95 100 100 98 100 98 95 94 76
62 65 69 56 49 51 47 54 52 50 56 72 41 33 31 23 18 18 14 12 13 13 35 36 40 45 51 55 65 76 84 81 94 99 98 92 89 96 97 88 89 84 75 72
52 53 51 62 72 51 49 78 86 76 66 68 31 34 27 22 18 18 17 14 14 14 36 45 46 50 55 55 62 71 81 80 91 99 99 98 92 86 86 84 80 80 83 74
54 70 45 47 53 47 52 75 84 91 90 60 34 38 28 19 16 15 12 12 12 18 34 38 42 47 52 53 54 61 70 76 85 94 98 100 93 89 87 83 79 74 70 61
45 52 38 43 35 38 75 67 50 90 66 87 60 35 20 18 17 16 14 12 17 19 32 35 40 44 48 51 53 55 59 68 79 85 99 99 100 99 92 85 85 83 71 72
38 49 31 37 39 40 67 51 90 100 96 95 55 49 33 35 20 16 20 20 17 20 21 36 38 42 45 46 48 54 55 58 70 82 98 99 100 100 98 91 82 83 74 70
46 52 45 35 44 45 56 88 92 85 71 75 85 67 40 32 31 28 27 27 24 25 29 25 36 41 44 47 48 51 57 61 75 79 90 99 99 99 98 95 92 85 82 80
50 66 68 46 47 48 50 51 76 98 90 65 62 65 35 28 30 30 31 25 28 32 38 32 30 42 44 47 49 50 54 61 69 69 80 85 100 99 98 98 98 97 90 91
51 65 79 54 44 49 53 48 50 71 77 97 93 60 38 34 32 29 28 31 37 39 39 42 48 56 49 48 49 51 53 56 60 65 71 77 76 90 100 98 96 98 97 96
53 65 75 84 77 63 69 62 53 70 100 91 89 71 62 53 61 33 33 37 42 44 51 56 56 60 62 66 63 56 53 54 56 58 60 69 71 72 68 87 99 97 99 99
74 92 74 74 56 54 60 73 54 71 84 97 70 69 55 65 65 46 46 46 49 53 60 61 68 64 63 61 61 66 74 71 61 60 60 59 60 68 71 74 77 98 99 100
63 86 76 71 66 66 64 56 41 41 63 86 71 70 67 59 57 56 48 51 55 60 62 70 64 59 53 57 57 56 57 62 76 72 65 60 62 63 68 76 72 75 79 96
77 72 88 91 82 81 77 55 45 50 68 65 82 67 57 60 62 52 52 53 60 64 71 70 72 64 54 57 60 51 56 58 52 62 78 79 68 63 63 66 75 81 78 83
72 73 80 97 87 94 53 43 38 45 52 58 62 65 67 69 62 53 56 62 65 68 76 73 67 56 57 54 50 54 57 63 65 63 61 77 85 83 77 67 66 69 82 88
54 67 92 96 93 73 52 37 34 64 80 55 59 50 66 60 60 59 59 62 63 67 81 79 75 68 61 56 60 61 62 68 74 73 73 67 65 76 85 91 75 68 73 84
48 61 77 98 87 96 50 37 30 52 88 63 54 62 69 59 85 68 62 65 66 68 78 77 75 72 67 67 66 67 67 72 72 81 87 85 78 76 76 86 87 86 74 76
66 72 78 79 88 82 50 40 35 75 94 66 62 63 60 67 65 67 66 71 74 77 83 87 79 80 90 87 80 77 84 82 90 90 97 97 96 91 83 81 89 88 94 88
93 78 86 80 87 83 41 44 72 73 64 65 67 66 64 65 69 72 74 77 81 85 86 91 94 99 100 100 99 99 98 100 98 95 93 92 99 100 99 97 98 100 100 100
99 69 85 70 67 64 66 69 66 67 68 68 66 67 68 74 79 78 84 86 93 99 99 100 99 99 100 99 99 100 100 99 99 96 95 94 98 100 100 99 98 99 100 100
86 71 77 58 44 65 70 64 62 63 65 66 67 70 71 78 81 86 88 93 97 99 97 98 98 97 96 95 96 99 100 100 100 100 96 92 90 97 100 100 98 97 98 99
93 93 69 69 86 87 86 68 64 66 67 68 68 72 76 75 86 86 95 100 100 100 100 98 97 96 96 96 96 98 99 100 100 100 99 100 99 100 100 97 99 95 89 95
99 99 94 100 98 97 98 86 71 69 70 72 74 75 82 81 88 92 94 96 94 95 96 93 93 93 96 95 95 95 93 94 94 94 95 95 95 95 97 99 100 100 100 96

GFSCGP_850_rhum_072.txt.gz
RH
35 46 50 40 36 40 41 44 45 38 29 29 31 29 24 20 17 14 15 15 24 28 37 41 42 44 49 58 50 57 86 94 90 95 99 99 94 92 92 93 92 93 86 88
53 60 45 39 40 44 45 48 48 35 26 27 33 31 25 20 18 15 17 21 24 37 46 46 46 48 50 52 53 62 78 99 98 97 96 100 98 90 90 94 96 98 93 88
65 56 46 46 48 50 46 49 50 48 31 28 32 35 28 23 15 14 16 18 21 29 45 48 49 49 52 55 54 66 70 81 97 98 96 99 99 99 96 98 100 100 99 93
69 66 55 55 58 53 55 40 48 51 44 50 36 63 34 26 20 17 16 16 19 30 34 40 48 52 51 52 60 65 77 83 95 92 96 97 91 96 98 100 99 98 98 89
65 75 74 73 59 48 58 45 62 56 60 59 43 52 37 25 23 21 19 15 17 23 28 41 42 46 49 52 60 64 76 73 86 90 92 99 93 95 100 98 100 99 100 97
63 62 68 62 58 52 48 69 66 57 61 79 48 47 42 29 21 19 18 14 16 28 34 29 46 48 50 54 62 67 74 80 79 88 88 83 90 88 89 98 98 99 99 99
60 73 60 60 67 61 65 91 86 80 82 75 40 43 38 27 22 22 22 18 16 20 43 49 51 49 52 53 59 66 73 80 73 82 89 82 91 88 82 84 98 100 98 98
53 62 65 59 59 74 67 92 96 90 91 78 47 47 33 22 18 17 16 15 20 40 45 44 42 42 45 50 55 64 65 76 74 73 91 91 92 89 84 82 89 90 97 86
46 55 44 51 45 49 70 94 67 95 88 91 65 48 29 27 24 20 19 18 27 32 43 45 42 40 41 48 51 54 56 62 68 62 94 98 98 96 89 86 83 81 85 87
39 53 38 48 47 50 60 59 90 99 96 94 61 53 55 39 34 28 36 39 35 49 53 46 36 37 40 46 51 58 55 48 57 61 73 97 97 97 94 91 90 84 80 79
53 54 51 46 64 60 86 96 94 83 81 98 90 89 51 54 38 38 41 44 47 45 48 54 45 41 46 48 50 54 59 60 61 61 61 84 98 97 97 99 93 87 84 81
52 68 87 58 44 43 59 78 94 100 89 80 93 89 73 73 55 40 44 47 56 61 36 50 60 65 65 59 50 50 55 58 57 52 60 65 79 99 98 98 98 96 92 87
48 76 92 62 60 52 59 54 76 83 88 100 99 84 77 81 60 52 49 59 65 73 78 71 65 69 76 83 79 80 80 73 63 56 55 62 69 74 94 98 98 97 93 92
52 66 74 86 80 73 98 66 68 88 100 82 90 76 87 82 77 68 56 62 68 78 80 77 80 83 81 79 80 83 87 87 84 81 76 71 63 58 65 71 88 98 97 97
68 75 79 77 69 60 64 67 76 92 78 92 69 78 67 83 88 82 61 63 70 80 81 78 78 74 72 73 76 81 82 84 88 88 85 83 80 78 79 84 83 78 84 97
70 81 80 84 66 66 66 61 68 83 80 88 78 75 75 89 86 86 64 68 79 85 78 72 76 72 67 72 66 68 68 72 77 78 92 98 100 99 91 84 78 79 84 85
73 78 91 96 79 77 87 67 59 73 63 73 94 76 85 84 76 68 76 77 84 88 91 81 84 79 84 84 77 77 79 75 72 76 86 91 90 94 100 100 99 93 86 85
77 76 86 95 91 94 54 40 40 50 60 76 78 77 78 82 75 70 73 82 90 74 72 76 80 73 73 74 76 70 70 70 73 76 77 76 81 92 97 100 100 100 100 99
65 76 91 90 93 61 38 48 58 64 87 79 79 76 86 81 74 74 80 83 85 81 80 78 76 73 67 62 62 60 56 60 63 67 73 76 80 80 79 81 84 91 100 100
60 65 80 96 88 87 59 44 44 55 99 83 73 86 84 74 89 82 84 81 90 89 84 79 78 74 65 65 66 64 62 61 61 69 75 78 86 96 93 91 87 84 92 100
85 84 82 83 89 73 51 44 41 80 96 75 70 71 66 73 73 84 84 83 81 79 78 84 80 77 85 84 82 74 79 76 82 80 80 78 80 94 100 99 99 98 99 100
83 95 93 87 92 85 38 54 60 90 86 83 82 79 82 83 84 86 87 88 87 88 97 100 99 99 99 100 95 93 88 97 90 86 82 78 80 91 100 99 100 100 100 100
96 93 94 74 67 79 80 78 76 80 86 89 79 81 82 87 92 93 93 94 99 100 100 99 98 98 97 97 95 94 94 96 96 94 86 84 86 96 100 99 99 99 100 100
82 79 100 78 58 77 76 75 77 78 83 85 82 77 78 87 88 87 92 99 100 100 99 100 98 98 100 100 100 100 100 100 98 95 93 91 89 90 91 91 94 96 99 99
98 96 97 91 91 91 92 96 83 78 73 76 80 77 77 76 89 92 100 100 100 100 100 100 99 99 100 100 98 98 99 97 93 91 91 90 90 89 92 92 98 100 100 99
98 99 100 100 99 98 99 98 82 77 77 78 77 83 88 84 92 95 99 100 98 98 98 94 95 95 98 97 96 94 91 89 88 88 92 93 91 90 90 91 95 97 96 97

GFSCGP_850_rhum_075.txt.gz
RH
36 43 50 42 40 44 47 49 52 45 36 37 38 35 30 27 25 25 21 18 16 16 15 38 41 47 48 57 56 49 40 52 91 99 100 92 79 100 98 100 100 96 96 89
49 60 44 39 38 46 50 54 53 44 36 38 37 38 30 26 27 22 20 19 17 19 30 39 45 49 49 54 57 50 45 51 61 90 97 98 92 100 100 100 96 86 85 80
59 52 49 49 52 55 56 54 52 52 45 38 41 42 33 26 25 21 17 16 16 14 26 43 46 50 52 57 56 52 50 51 65 86 98 98 98 100 100 100 100 100 96 92
63 54 58 59 61 57 70 45 45 60 64 65 40 66 42 34 30 23 20 19 20 18 33 30 42 51 49 53 56 57 57 60 73 87 99 98 96 98 96 96 98 100 100 100
64 72 76 76 63 54 64 52 66 67 74 68 62 66 46 31 32 26 22 17 16 22 26 36 36 40 47 56 56 59 64 68 69 80 92 96 99 98 95 88 97 100 100 99
65 64 67 68 58 58 48 74 80 70 68 98 64 56 55 39 29 22 20 19 17 16 23 32 42 54 52 59 60 62 71 74 74 78 88 92 99 96 100 100 99 100 100 100
64 77 64 61 66 64 64 85 89 95 96 86 49 54 44 32 27 25 23 20 17 17 21 47 52 54 56 53 56 63 71 74 75 73 80 88 88 88 95 98 98 99 100 98
64 47 78 66 65 77 76 82 91 90 92 72 46 55 40 26 22 26 28 22 18 19 20 35 43 42 48 48 52 60 66 72 75 74 76 88 85 84 94 100 100 98 92 94
52 50 52 63 54 62 90 95 69 100 94 95 71 52 35 37 36 37 47 35 22 22 28 45 51 44 43 44 47 54 63 67 74 71 67 84 84 84 84 87 97 100 98 97
39 53 40 52 53 57 74 65 97 100 95 95 70 55 72 73 68 51 52 59 58 43 56 57 61 44 42 45 50 57 62 63 64 72 67 76 83 88 90 86 84 82 97 100
50 48 49 61 76 82 86 93 94 86 87 98 94 95 72 94 85 63 60 70 84 56 59 65 73 70 72 73 64 63 67 71 73 71 69 72 84 95 95 94 87 81 82 84
54 74 86 68 49 53 71 80 95 100 95 88 99 86 74 84 82 63 68 81 95 89 70 67 70 75 81 79 73 76 73 77 78 80 82 74 77 91 99 99 98 92 88 88
51 72 82 62 65 57 73 71 81 86 93 99 97 84 76 77 78 74 68 87 90 99 100 97 92 96 98 97 93 88 82 79 80 81 81 78 80 83 91 98 98 98 99 97
50 68 71 78 81 76 91 73 76 88 100 98 96 88 90 84 83 81 70 79 90 98 100 100 100 100 100 100 100 99 98 95 92 90 87 86 86 88 87 88 88 89 94 98
62 63 80 80 76 70 70 69 66 93 97 100 72 71 67 84 85 84 89 81 82 91 97 97 97 98 100 98 94 93 93 97 90 88 94 96 96 96 96 98 98 98 99 96
70 79 79 82 68 70 64 56 57 59 74 87 91 84 69 77 91 93 94 89 85 92 98 97 93 91 89 92 90 90 92 92 88 91 94 100 100 100 100 100 100 100 100 100
69 78 86 86 75 76 76 66 49 54 68 69 84 73 80 90 90 94 97 92 92 97 96 98 92 83 74 79 90 86 85 86 82 83 94 98 100 100 100 100 99 100 100 100
79 79 90 94 83 84 46 27 52 57 57 63 66 72 78 88 96 100 100 100 98 91 82 83 87 78 69 68 65 62 62 62 66 70 74 80 82 85 94 98 99 100 100 100
70 77 92 86 89 53 38 53 69 77 83 76 73 87 84 89 88 99 99 99 98 97 98 90 83 86 75 71 71 67 61 56 52 48 50 54 61 69 77 85 88 91 95 99
74 70 78 94 88 84 54 43 47 51 90 74 81 88 84 78 94 100 100 98 92 95 92 85 86 87 82 84 83 79 74 69 64 63 62 63 64 69 76 93 98 98 99 99
86 88 89 91 88 76 50 40 49 75 98 82 85 84 88 86 90 99 98 96 96 100 96 95 92 92 97 94 90 81 82 78 81 77 72 69 68 72 88 98 100 99 98 100
81 93 97 89 91 88 71 77 63 69 97 95 91 87 96 99 96 96 97 99 99 94 89 91 88 88 88 85 86 85 81 94 91 85 80 81 84 94 100 99 98 99 99 99
86 84 89 80 74 83 86 88 91 92 99 99 100 99 99 96 100 94 95 95 99 99 98 98 98 99 100 100 99 97 100 96 92 91 86 84 84 84 88 96 96 97 98 98
84 83 97 98 90 91 91 87 86 96 100 100 96 93 98 95 99 99 100 100 100 100 100 100 100 100 100 100 100 100 99 96 90 86 85 84 84 89 91 92 92 91 91 91
99 93 88 84 94 89 100 100 99 95 97 91 91 90 87 83 94 99 100 100 100 100 100 98 100 100 99 99 98 94 92 92 87 85 84 83 83 84 86 86 92 93 96 93
98 100 93 97 99 96 99 100 100 97 98 94 87 90 94 90 96 100 100 100 99 99 99 97 99 98 98 95 92 91 89 90 89 87 88 88 86 87 88 91 93 94 95 95

GFSCGP_850_rhum_081.txt.gz
RH
36 37 39 33 36 28 32 37 39 40 34 37 33 32 29 29 31 30 29 26 25 19 16 15 16 16 19 48 53 53 60 63 58 67 94 100 100 94 100 94 95 84 90 99
49 48 36 35 35 38 38 41 41 39 37 37 38 38 33 32 30 29 28 26 24 20 16 15 16 17 17 35 51 53 58 60 58 68 81 99 100 99 98 99 93 100 100 97
55 40 45 40 41 45 46 51 52 52 44 42 46 42 30 26 26 27 28 27 25 24 19 15 16 16 18 32 46 50 56 59 61 69 99 98 98 98 98 97 99 97 100 100
53 40 45 52 53 52 65 49 51 57 61 65 49 62 40 33 30 28 27 28 26 20 20 18 17 16 16 29 48 51 56 59 67 80 90 99 97 97 95 92 96 98 99 100
49 66 67 55 49 51 59 53 57 60 65 70 59 67 44 37 36 30 28 28 25 20 20 17 17 19 24 42 52 54 58 61 65 73 74 99 98 98 94 99 92 96 100 100
46 65 62 57 58 54 52 59 62 66 68 84 54 58 49 41 35 30 26 27 32 31 24 23 26 31 39 45 55 62 58 64 63 68 73 82 97 98 99 100 100 99 95 90
61 67 64 60 61 64 63 69 70 76 87 63 48 62 49 44 63 56 57 60 63 61 28 29 35 32 32 35 52 63 63 67 64 65 65 79 98 98 97 96 97 98 100 100
58 45 69 63 54 55 73 66 67 80 78 73 56 62 52 64 60 66 73 80 81 80 56 32 35 45 40 45 47 65 73 72 64 67 68 80 98 99 99 99 98 96 94 99
55 43 63 66 58 53 78 82 67 92 76 89 56 46 60 58 62 62 70 77 87 90 68 51 36 53 64 72 99 77 74 68 67 70 68 75 93 99 98 91 99 99 95 94
40 46 49 64 57 62 71 68 99 98 86 80 58 61 69 80 76 72 78 82 93 100 90 56 61 69 84 96 100 96 74 69 70 75 66 71 85 92 94 98 100 98 98 98
42 45 61 62 67 70 81 97 88 94 95 78 76 62 78 84 84 89 83 90 98 100 100 98 89 100 99 99 99 99 94 78 79 80 68 74 79 86 86 86 91 93 98 98
54 58 60 65 54 55 66 77 73 90 86 93 86 70 77 85 84 86 82 90 98 100 100 100 100 100 100 100 100 100 99 88 82 75 71 78 84 94 88 89 97 97 97 100
77 75 76 68 71 78 81 83 87 84 90 84 86 61 72 72 76 85 86 91 97 100 100 100 99 100 100 100 100 100 100 98 84 81 80 87 96 98 97 94 100 97 97 100
85 78 64 58 62 63 74 63 57 82 92 98 82 62 55 68 75 86 93 93 96 100 100 100 100 100 100 100 100 100 99 100 100 97 96 98 100 100 94 88 94 98 100 99
84 94 79 67 64 69 69 58 50 54 60 72 46 53 48 55 68 90 94 95 94 99 100 100 100 100 100 100 100 100 100 100 100 99 99 98 100 99 100 100 99 99 99 98
88 94 86 70 61 50 44 35 37 43 48 51 53 59 48 52 68 91 92 94 97 100 100 100 100 100 100 100 100 100 100 100 100 100 100 99 99 100 100 99 100 99 100 99
78 80 69 53 56 49 39 42 37 46 55 61 70 56 48 74 82 91 94 94 94 98 100 100 100 100 100 99 100 100 100 100 100 100 99 100 99 100 99 100 99 100 100 100
83 67 73 61 59 45 31 33 38 45 53 40 52 70 74 95 100 100 100 100 100 98 100 100 100 100 93 91 99 100 99 100 98 100 99 98 99 100 100 100 100 99 100 100
69 72 73 68 65 41 45 48 51 49 37 81 84 90 91 98 95 100 100 100 100 100 99 100 100 99 92 86 80 75 81 76 82 80 78 87 91 99 100 100 100 100 100 100
74 65 64 82 66 53 39 59 72 62 57 84 87 87 91 91 99 99 99 100 100 99 99 99 97 92 98 96 82 74 76 76 72 76 80 93 89 95 99 99 100 99 98 99
80 81 78 77 73 60 81 76 77 43 81 91 99 92 85 95 98 98 98 98 98 99 99 100 100 95 95 92 88 79 86 85 96 100 100 99 100 100 100 99 100 100 99 99
68 82 88 79 83 78 84 71 82 94 98 99 100 100 100 99 98 97 97 98 99 100 100 100 100 100 100 100 93 87 84 92 89 88 91 90 98 99 100 99 99 97 94 92
82 85 85 69 65 91 95 91 99 100 100 100 99 100 98 98 97 97 97 97 97 99 99 100 99 99 99 99 100 94 96 93 90 87 90 92 94 96 98 98 96 91 90 87
87 89 99 82 82 94 96 100 100 100 99 100 100 99 98 96 97 96 97 97 99 100 100 100 100 100 100 100 100 96 93 88 84 83 87 88 87 88 86 83 83 82 82 82
98 85 88 78 85 97 98 98 99 98 99 99 98 96 97 97 96 96 98 99 100 100 100 100 100 100 100 96 94 92 89 85 80 79 81 81 81 80 79 79 83 82 84 82
97 99 90 91 98 99 99 100 97 97 97 98 98 97 96 97 96 97 96 98 98 97 97 95 95 96 95 90 88 86 86 83 80 78 81 83 84 85 86 88 88 90 90 88

GFSCGP_850_rhum_084.txt.gz
RH
24 25 27 20 23 21 20 21 22 20 18 24 26 22 19 17 17 18 22 21 19 19 18 15 18 29 49 61 78 79 52 56 59 69 53 64 86 99 98 99 99 100 100 99
32 28 17 18 21 26 24 25 25 22 23 30 29 28 23 20 19 20 20 22 21 20 18 16 17 30 46 60 71 61 50 50 62 65 52 57 79 99 99 98 96 96 97 94
33 27 29 28 31 34 30 31 28 32 33 33 34 30 22 20 19 19 19 20 20 21 19 17 16 24 50 59 63 44 49 57 62 67 52 90 88 92 97 94 93 92 94 96
36 27 36 34 33 31 33 30 40 42 45 41 33 40 23 23 22 21 21 21 19 20 19 18 16 18 45 57 78 54 57 84 65 61 60 96 94 98 99 94 90 98 95 96
33 38 39 37 32 36 38 40 43 45 47 46 40 45 22 24 27 26 21 22 21 20 19 18 18 17 39 61 82 84 80 93 65 58 93 96 97 98 100 86 96 99 88 98
30 39 48 40 40 31 38 46 44 44 47 67 38 38 26 30 44 41 38 37 35 35 38 33 26 24 40 64 89 91 84 82 64 60 96 96 99 98 96 92 99 99 98 95
29 36 32 47 46 46 45 46 42 58 74 43 35 42 31 43 47 49 50 51 52 53 51 50 40 45 54 73 97 89 89 76 64 81 97 92 99 98 93 94 99 98 95 92
39 44 41 42 42 35 43 37 42 50 44 38 38 45 39 44 44 48 51 56 60 66 66 54 46 59 66 81 100 100 96 75 66 97 94 66 100 97 94 97 98 96 100 100
42 38 44 50 43 37 52 63 44 64 52 59 33 31 44 41 46 50 54 62 69 81 84 73 51 69 78 88 99 99 99 82 69 85 60 70 100 98 95 93 96 97 97 97
41 44 41 52 49 48 52 44 80 68 72 57 32 36 45 58 65 60 56 61 75 89 98 96 68 77 80 94 99 98 100 91 70 69 59 70 93 100 97 98 98 98 94 91
43 37 49 54 57 48 69 76 76 78 79 63 46 41 56 70 71 60 54 72 85 95 100 99 87 84 93 99 100 100 100 98 78 69 65 70 80 95 99 100 100 99 96 93
56 48 43 46 46 40 44 54 58 67 76 74 82 50 53 61 58 54 75 76 89 97 99 100 100 100 100 99 99 99 100 100 85 74 77 77 81 85 98 99 98 99 98 97
94 57 52 55 54 52 57 65 77 76 72 68 78 56 46 49 50 69 72 77 91 99 98 100 100 100 100 100 100 99 100 99 99 99 100 89 78 93 98 100 98 96 97 97
97 87 52 46 49 50 62 54 52 59 77 68 56 42 32 28 33 58 77 81 91 100 98 100 100 100 100 100 100 100 100 100 99 98 98 98 99 98 97 98 95 96 96 97
100 89 68 47 42 40 42 42 39 44 47 49 33 27 28 34 43 52 81 86 91 99 98 98 100 100 100 100 100 100 100 100 100 99 100 99 99 100 99 99 97 97 96 99
99 96 95 82 44 35 33 25 24 26 26 30 38 40 33 38 46 81 82 88 94 100 99 98 100 100 100 100 100 100 100 100 100 100 100 100 100 100 100 100 100 100 99 100
100 70 74 81 41 33 33 30 33 38 39 42 50 44 39 53 84 86 93 95 99 98 96 98 100 100 100 100 100 100 100 100 100 100 100 100 100 100 100 100 100 100 100 100
99 80 44 47 43 40 31 34 28 28 42 61 61 68 82 90 99 100 100 100 99 100 97 95 99 100 100 100 100 100 100 100 100 100 100 100 99 100 100 100 100 100 100 100
65 69 52 50 43 28 32 41 47 44 48 63 60 64 81 93 98 98 99 98 99 100 99 99 98 98 99 99 100 100 100 100 100 99 100 100 98 98 100 100 100 99 100 100
53 59 58 56 50 38 51 42 50 48 52 58 67 74 78 89 98 97 98 98 98 98 99 97 100 98 98 99 98 87 98 97 94 95 96 100 100 84 92 100 100 98 99 99
62 57 60 52 52 42 59 51 48 57 76 80 89 93 87 89 97 98 97 96 97 97 97 97 97 97 100 94 86 80 86 93 96 98 86 98 100 99 100 99 100 100 99 99
52 54 59 49 57 60 69 51 64 84 89 97 97 99 100 100 99 97 97 96 97 98 98 99 100 99 99 99 96 88 88 99 99 100 100 100 100 100 99 100 100 98 94 92
74 82 73 51 76 84 89 86 93 100 100 100 99 100 99 98 97 97 97 96 97 97 99 100 100 100 100 96 95 95 97 99 99 99 100 100 99 99 100 100 99 96 95 90
70 68 99 70 96 95 99 100 100 100 99 99 99 99 96 97 96 96 97 97 97 98 99 100 100 97 96 94 91 92 93 92 89 90 92 92 88 90 87 84 86 85 84 86
77 71 74 65 94 98 97 100 100 100 99 99 98 97 96 96 96 96 97 100 100 100 100 100 100 100 95 90 86 87 93 90 86 84 86 86 83 82 80 77 81 80 82 83
90 95 83 91 95 93 96 100 100 99 100 99 98 96 97 96 95 96 96 96 96 99 100 100 100 100 97 90 88 87 85 83 81 81 84 87 86 87 87 85 83 84 85 82

GFSCGP_850_rhum_087.txt.gz
RH
20 19 20 18 19 17 16 16 14 12 9 13 16 16 14 13 12 12 13 13 16 17 15 16 13 12 16 26 40 57 93 96 99 94 64 66 51 78 86 83 85 86 91 89
19 26 18 14 15 18 22 22 19 14 12 16 19 21 18 16 15 14 13 14 14 17 16 16 15 13 22 35 48 61 89 94 98 65 82 76 66 98 97 88 88 89 88 93
25 19 19 16 16 20 21 23 21 20 17 19 22 21 18 15 14 15 15 15 15 16 17 17 16 14 24 39 51 62 80 90 100 96 92 94 95 98 97 92 95 97 93 95
22 19 22 26 24 21 25 16 19 24 32 31 19 32 19 15 14 17 17 18 18 16 16 18 17 15 19 40 50 62 76 87 99 94 88 85 92 92 94 96 99 100 98 93
25 25 28 28 28 21 24 20 32 32 34 34 29 28 20 15 21 25 25 26 25 19 17 18 17 17 15 29 49 65 80 86 96 93 90 89 86 80 85 96 99 96 84 88
23 19 25 27 25 24 22 31 35 34 32 43 29 28 18 20 35 37 34 35 38 35 32 24 22 20 15 21 48 74 86 84 98 95 94 90 84 80 86 94 98 92 92 83
22 22 20 24 35 32 29 39 48 46 55 48 22 28 22 32 35 38 40 40 43 50 53 49 37 28 22 27 55 84 93 90 99 98 92 92 87 90 87 97 94 94 91 76
28 28 20 18 31 34 37 37 45 41 37 43 30 35 28 33 40 38 39 43 48 55 64 68 60 39 32 32 57 94 100 99 99 98 88 92 90 90 88 97 90 91 89 82
44 31 26 29 27 31 32 39 27 36 34 42 33 18 33 33 43 37 35 42 50 60 75 85 81 42 46 50 84 98 99 100 99 92 87 96 94 96 93 100 92 98 91 93
51 48 30 31 36 32 30 33 58 55 58 49 26 22 38 59 46 36 37 46 55 63 81 90 94 71 59 79 95 98 100 99 100 88 96 92 96 99 100 100 98 95 95 100
55 55 38 32 45 42 43 56 56 50 49 53 47 49 52 51 41 40 40 50 60 70 87 98 96 90 89 97 91 98 99 98 99 98 99 95 99 97 97 91 90 96 95 94
73 93 56 44 30 33 47 43 45 62 47 44 56 52 46 40 40 43 45 53 65 76 92 98 99 99 100 97 98 100 100 98 98 100 100 91 99 99 99 97 98 98 99 92
73 78 69 40 49 37 42 49 49 53 58 66 62 56 53 27 22 34 47 57 65 79 94 98 98 99 99 100 100 100 100 100 99 99 98 96 98 97 100 99 98 99 97 92
98 81 64 54 47 49 42 39 48 54 71 53 50 37 27 21 28 31 56 63 70 84 95 99 98 99 98 100 100 100 100 100 99 100 98 100 100 99 97 98 100 97 93 93
100 88 69 53 55 55 54 51 47 52 48 53 34 26 21 28 31 49 64 71 75 86 95 99 98 99 99 100 100 100 100 100 100 99 99 99 99 98 99 100 99 97 99 99
77 87 91 71 34 33 35 30 27 24 21 20 21 28 48 61 54 70 77 79 83 93 100 100 97 99 99 100 100 100 100 100 100 100 99 100 100 100 98 96 96 100 99 100
89 91 98 79 54 34 38 26 21 26 28 39 62 61 60 82 92 97 96 98 100 100 99 100 98 98 99 99 100 100 100 100 100 100 100 100 100 100 100 100 100 100 99 99
79 93 96 69 47 61 43 23 24 24 46 43 44 48 76 90 100 100 99 99 99 98 98 100 100 98 99 99 100 100 100 100 100 100 99 100 100 100 100 100 100 100 100 100
66 95 77 61 83 32 30 35 39 41 66 58 56 54 68 87 85 99 100 98 97 97 97 98 99 98 98 99 100 100 99 100 100 100 100 100 100 100 100 100 100 100 100 100
54 54 72 42 40 46 66 37 36 34 58 61 63 68 68 76 98 97 99 98 97 97 96 97 96 100 99 97 98 97 100 100 99 98 99 100 100 100 100 97 100 100 98 100
56 50 56 51 42 40 52 41 40 52 89 82 76 83 94 94 98 99 98 97 97 97 97 97 97 97 97 98 99 98 99 98 99 95 98 100 100 100 100 96 98 100 99 96
43 48 50 42 45 57 64 46 67 79 84 94 89 94 99 100 99 98 98 98 98 97 98 96 96 96 96 98 99 98 97 97 100 98 99 100 100 99 100 99 99 99 96 91
70 70 78 78 96 77 81 83 86 96 100 100 97 99 100 100 100 97 98 97 97 96 96 99 99 99 99 98 97 97 97 98 99 99 100 98 99 98 99 98 99 98 100 98
56 52 69 68 86 84 83 82 93 100 100 100 100 99 100 100 99 97 97 96 96 98 97 96 96 95 96 100 99 97 98 95 98 98 97 97 97 97 98 96 96 94 99 99
72 56 65 92 90 79 82 91 98 100 99 99 99 99 99 98 97 96 96 96 96 100 100 100 99 99 100 93 94 100 100 100 100 99 100 94 94 90 84 83 86 84 86 84
87 95 85 94 82 79 91 98 100 99 98 99 100 96 98 97 96 96 96 96 97 96 96 97 100 99 94 88 86 87 92 96 95 89 94 99 97 94 82 77 76 77 77 74